Wetterdaten: Donnerstag, 20.08.2020
Datum Zeit Temp. Aussen Temp. o. S. Temp +5cm Feuchte Auss Luftdruck Regen Sonnenschein Regendauer Solar Windben Empfang
20.08.2020 00:00 23,3 C 20,0 C 18,9 C 76 % 1006,2 hPa 0,0 l/m 0 min 2 min 0 W/m 6,4 km/h (2 Bft) 100,00 %
20.08.2020 00:02 23,2 C 20,0 C 18,9 C 76 % 1006,2 hPa 0,0 l/m 0 min 2 min 0 W/m 6,4 km/h (2 Bft) 97,44 %
20.08.2020 00:04 23,2 C 20,0 C 18,9 C 76 % 1006,1 hPa 0,0 l/m 0 min 2 min 0 W/m 12,9 km/h (3 Bft) 95,74 %
20.08.2020 00:08 23,1 C 20,0 C 18,9 C 76 % 1006,1 hPa 0,0 l/m 0 min 0 min 0 W/m 12,9 km/h (3 Bft) 96,91 %
20.08.2020 00:10 23,1 C 20,6 C 18,9 C 76 % 1006,1 hPa 0,0 l/m 0 min 0 min 0 W/m 6,4 km/h (2 Bft) 97,83 %
20.08.2020 00:12 23,1 C 20,6 C 18,9 C 77 % 1006,1 hPa 0,0 l/m 0 min 0 min 0 W/m 6,4 km/h (2 Bft) 95,74 %
20.08.2020 00:14 22,9 C 20,6 C 18,9 C 77 % 1006,0 hPa 0,0 l/m 0 min 0 min 0 W/m 6,4 km/h (2 Bft) 95,74 %
20.08.2020 00:16 22,9 C 20,6 C 18,9 C 77 % 1006,0 hPa 0,0 l/m 0 min 0 min 0 W/m 6,4 km/h (2 Bft) 95,74 %
20.08.2020 00:18 22,9 C 21,1 C 19,4 C 77 % 1005,9 hPa 0,0 l/m 0 min 0 min 0 W/m 12,9 km/h (3 Bft) 97,87 %
20.08.2020 00:20 22,8 C 21,1 C 19,4 C 77 % 1005,9 hPa 0,0 l/m 0 min 0 min 0 W/m 16,1 km/h (3 Bft) 95,74 %
20.08.2020 00:22 22,8 C 21,1 C 19,4 C 77 % 1005,9 hPa 0,0 l/m 0 min 0 min 0 W/m 12,9 km/h (3 Bft) 95,65 %
20.08.2020 00:24 22,7 C 21,7 C 20,0 C 77 % 1006,0 hPa 0,0 l/m 0 min 0 min 0 W/m 19,3 km/h (3 Bft) 95,12 %
20.08.2020 00:26 22,7 C 21,7 C 20,0 C 76 % 1006,0 hPa 0,0 l/m 0 min 0 min 0 W/m 16,1 km/h (3 Bft) 95,74 %
20.08.2020 00:28 22,7 C 21,7 C 20,0 C 76 % 1006,0 hPa 0,0 l/m 0 min 0 min 0 W/m 12,9 km/h (3 Bft) 97,87 %
20.08.2020 00:30 22,7 C 21,7 C 20,0 C 76 % 1006,0 hPa 0,0 l/m 0 min 0 min 0 W/m 19,3 km/h (3 Bft) 95,74 %
20.08.2020 00:32 22,6 C 21,7 C 20,6 C 76 % 1006,1 hPa 0,0 l/m 0 min 0 min 0 W/m 12,9 km/h (3 Bft) 93,75 %
20.08.2020 00:34 22,7 C 21,7 C 20,6 C 76 % 1006,0 hPa 0,0 l/m 0 min 0 min 0 W/m 16,1 km/h (3 Bft) 93,48 %
20.08.2020 00:36 22,7 C 22,2 C 20,6 C 76 % 1006,0 hPa 0,0 l/m 0 min 0 min 0 W/m 12,9 km/h (3 Bft) 93,62 %
20.08.2020 00:38 22,7 C 21,7 C 20,6 C 76 % 1006,0 hPa 0,0 l/m 0 min 0 min 0 W/m 12,9 km/h (3 Bft) 95,74 %
20.08.2020 00:40 22,7 C 22,2 C 20,6 C 76 % 1006,0 hPa 0,0 l/m 0 min 0 min 0 W/m 12,9 km/h (3 Bft) 93,62 %
20.08.2020 00:42 22,7 C 22,2 C 20,6 C 76 % 1006,0 hPa 0,0 l/m 0 min 0 min 0 W/m 19,3 km/h (3 Bft) 91,49 %
20.08.2020 00:44 22,7 C 22,2 C 20,6 C 76 % 1006,0 hPa 0,0 l/m 0 min 0 min 0 W/m 12,9 km/h (3 Bft) 93,62 %
20.08.2020 00:46 22,7 C 22,2 C 20,6 C 76 % 1006,0 hPa 0,0 l/m 0 min 0 min 0 W/m 19,3 km/h (3 Bft) 93,48 %
20.08.2020 00:48 22,7 C 22,2 C 21,1 C 76 % 1006,0 hPa 0,0 l/m 0 min 0 min 0 W/m 12,9 km/h (3 Bft) 93,62 %
20.08.2020 00:50 22,7 C 22,2 C 21,1 C 76 % 1006,1 hPa 0,0 l/m 0 min 0 min 0 W/m 16,1 km/h (3 Bft) 93,62 %
20.08.2020 00:52 22,7 C 22,2 C 21,1 C 76 % 1006,1 hPa 0,0 l/m 0 min 0 min 0 W/m 16,1 km/h (3 Bft) 93,62 %
20.08.2020 00:54 22,8 C 22,2 C 21,1 C 76 % 1006,2 hPa 0,0 l/m 0 min 0 min 0 W/m 16,1 km/h (3 Bft) 95,74 %
20.08.2020 00:56 22,8 C 22,2 C 21,1 C 76 % 1006,2 hPa 0,0 l/m 0 min 0 min 0 W/m 19,3 km/h (3 Bft) 93,62 %
20.08.2020 00:58 22,8 C 22,2 C 21,1 C 76 % 1006,2 hPa 0,0 l/m 0 min 0 min 0 W/m 12,9 km/h (3 Bft) 95,65 %
20.08.2020 01:00 22,8 C 22,2 C 21,1 C 76 % 1006,2 hPa 0,0 l/m 0 min 0 min 0 W/m 16,1 km/h (3 Bft) 95,74 %
20.08.2020 01:02 22,8 C 22,2 C 21,1 C 76 % 1006,2 hPa 0,0 l/m 0 min 0 min 0 W/m 12,9 km/h (3 Bft) 93,62 %
20.08.2020 01:04 22,8 C 22,2 C 21,1 C 75 % 1006,2 hPa 0,0 l/m 0 min 0 min 0 W/m 19,3 km/h (3 Bft) 95,74 %
20.08.2020 01:06 22,9 C 22,2 C 21,1 C 75 % 1006,3 hPa 0,0 l/m 0 min 0 min 0 W/m 19,3 km/h (3 Bft) 95,74 %
20.08.2020 01:08 22,9 C 22,2 C 21,1 C 75 % 1006,3 hPa 0,0 l/m 0 min 0 min 0 W/m 6,4 km/h (2 Bft) 95,74 %
20.08.2020 01:10 22,9 C 22,2 C 21,1 C 75 % 1006,3 hPa 0,0 l/m 0 min 0 min 0 W/m 19,3 km/h (3 Bft) 95,65 %
20.08.2020 01:12 22,9 C 22,2 C 21,1 C 75 % 1006,3 hPa 0,0 l/m 0 min 0 min 0 W/m 19,3 km/h (3 Bft) 95,74 %
20.08.2020 01:14 22,9 C 22,2 C 21,1 C 75 % 1006,4 hPa 0,0 l/m 0 min 0 min 0 W/m 19,3 km/h (3 Bft) 95,74 %
20.08.2020 01:16 22,9 C 22,2 C 21,1 C 75 % 1006,4 hPa 0,0 l/m 0 min 0 min 0 W/m 12,9 km/h (3 Bft) 95,74 %
20.08.2020 01:18 22,9 C 22,2 C 21,1 C 75 % 1006,4 hPa 0,0 l/m 0 min 0 min 0 W/m 12,9 km/h (3 Bft) 97,87 %
20.08.2020 01:20 22,9 C 21,7 C 21,1 C 75 % 1006,4 hPa 0,0 l/m 0 min 0 min 0 W/m 19,3 km/h (3 Bft) 97,87 %
20.08.2020 01:22 22,9 C 21,7 C 21,1 C 75 % 1006,5 hPa 0,0 l/m 0 min 0 min 0 W/m 22,5 km/h (4 Bft) 97,83 %
20.08.2020 01:24 22,9 C 21,7 C 21,1 C 75 % 1006,5 hPa 0,0 l/m 0 min 0 min 0 W/m 12,9 km/h (3 Bft) 95,74 %
20.08.2020 01:26 22,9 C 21,7 C 21,1 C 76 % 1006,5 hPa 0,0 l/m 0 min 0 min 0 W/m 16,1 km/h (3 Bft) 97,87 %
20.08.2020 01:28 22,9 C 21,7 C 21,1 C 75 % 1006,5 hPa 0,0 l/m 0 min 0 min 0 W/m 22,5 km/h (4 Bft) 97,87 %
20.08.2020 01:30 22,9 C 21,7 C 21,1 C 75 % 1006,5 hPa 0,0 l/m 0 min 0 min 0 W/m 19,3 km/h (3 Bft) 97,87 %
20.08.2020 01:32 22,9 C 21,7 C 21,1 C 75 % 1006,4 hPa 0,0 l/m 0 min 0 min 0 W/m 16,1 km/h (3 Bft) 97,87 %
20.08.2020 01:34 22,9 C 21,7 C 21,1 C 75 % 1006,4 hPa 0,0 l/m 0 min 0 min 0 W/m 12,9 km/h (3 Bft) 97,87 %
20.08.2020 01:36 22,9 C 21,7 C 21,1 C 75 % 1006,4 hPa 0,0 l/m 0 min 0 min 0 W/m 16,1 km/h (3 Bft) 97,87 %
20.08.2020 01:38 22,9 C 21,7 C 21,1 C 76 % 1006,5 hPa 0,0 l/m 0 min 0 min 0 W/m 12,9 km/h (3 Bft) 97,87 %
20.08.2020 01:40 22,9 C 21,7 C 21,1 C 75 % 1006,5 hPa 0,0 l/m 0 min 0 min 0 W/m 16,1 km/h (3 Bft) 100,00 %
20.08.2020 01:42 22,8 C 21,7 C 21,1 C 75 % 1006,5 hPa 0,0 l/m 0 min 0 min 0 W/m 6,4 km/h (2 Bft) 97,87 %
20.08.2020 01:44 22,8 C 21,7 C 21,1 C 75 % 1006,6 hPa 0,0 l/m 0 min 0 min 0 W/m 6,4 km/h (2 Bft) 97,83 %
20.08.2020 01:46 22,8 C 21,7 C 21,1 C 76 % 1006,6 hPa 0,0 l/m 0 min 0 min 0 W/m 16,1 km/h (3 Bft) 100,00 %
20.08.2020 01:48 22,8 C 21,1 C 21,1 C 76 % 1006,6 hPa 0,0 l/m 0 min 0 min 0 W/m 16,1 km/h (3 Bft) 97,87 %
20.08.2020 01:50 22,8 C 21,1 C 21,1 C 76 % 1006,7 hPa 0,0 l/m 0 min 0 min 0 W/m 29,0 km/h (5 Bft) 95,74 %
20.08.2020 01:52 22,8 C 21,1 C 21,1 C 76 % 1006,5 hPa 0,0 l/m 0 min 0 min 0 W/m 25,7 km/h (4 Bft) 97,87 %
20.08.2020 01:54 22,8 C 21,1 C 21,1 C 77 % 1006,5 hPa 0,0 l/m 0 min 0 min 0 W/m 16,1 km/h (3 Bft) 95,74 %
20.08.2020 01:56 22,7 C 21,1 C 20,6 C 77 % 1006,5 hPa 0,0 l/m 0 min 0 min 0 W/m 25,7 km/h (4 Bft) 100,00 %
20.08.2020 01:58 22,7 C 21,1 C 20,6 C 77 % 1006,4 hPa 0,0 l/m 0 min 0 min 0 W/m 12,9 km/h (3 Bft) 100,00 %
20.08.2020 02:00 22,7 C 21,1 C 20,6 C 77 % 1006,4 hPa 0,0 l/m 0 min 0 min 0 W/m 6,4 km/h (2 Bft) 100,00 %
20.08.2020 02:02 22,7 C 21,1 C 20,6 C 77 % 1006,4 hPa 0,0 l/m 0 min 0 min 0 W/m 9,7 km/h (2 Bft) 100,00 %
20.08.2020 02:04 22,7 C 21,1 C 20,6 C 77 % 1006,5 hPa 0,0 l/m 0 min 0 min 0 W/m 12,9 km/h (3 Bft) 97,87 %
20.08.2020 02:06 22,7 C 21,1 C 20,6 C 77 % 1006,5 hPa 0,0 l/m 0 min 0 min 0 W/m 16,1 km/h (3 Bft) 100,00 %
20.08.2020 02:08 22,6 C 21,1 C 20,6 C 77 % 1006,4 hPa 0,0 l/m 0 min 0 min 0 W/m 12,9 km/h (3 Bft) 100,00 %
20.08.2020 02:10 22,6 C 21,1 C 20,6 C 77 % 1006,4 hPa 0,0 l/m 0 min 0 min 0 W/m 6,4 km/h (2 Bft) 100,00 %
20.08.2020 02:12 22,6 C 21,1 C 20,6 C 77 % 1006,4 hPa 0,0 l/m 0 min 0 min 0 W/m 16,1 km/h (3 Bft) 100,00 %
20.08.2020 02:14 22,6 C 21,1 C 20,6 C 77 % 1006,4 hPa 0,0 l/m 0 min 0 min 0 W/m 12,9 km/h (3 Bft) 100,00 %
20.08.2020 02:16 22,6 C 21,1 C 20,6 C 77 % 1006,4 hPa 0,0 l/m 0 min 0 min 0 W/m 12,9 km/h (3 Bft) 100,00 %
20.08.2020 02:18 22,5 C 21,1 C 20,6 C 77 % 1006,3 hPa 0,0 l/m 0 min 0 min 0 W/m 12,9 km/h (3 Bft) 100,00 %
20.08.2020 02:20 22,5 C 21,1 C 20,6 C 77 % 1006,3 hPa 0,0 l/m 0 min 0 min 0 W/m 12,9 km/h (3 Bft) 100,00 %
20.08.2020 02:22 22,4 C 21,1 C 20,6 C 77 % 1006,3 hPa 0,0 l/m 0 min 0 min 0 W/m 6,4 km/h (2 Bft) 100,00 %
20.08.2020 02:24 22,4 C 21,1 C 20,6 C 77 % 1006,3 hPa 0,0 l/m 0 min 0 min 0 W/m 6,4 km/h (2 Bft) 100,00 %
20.08.2020 02:26 22,4 C 21,1 C 20,6 C 78 % 1006,2 hPa 0,0 l/m 0 min 0 min 0 W/m 12,9 km/h (3 Bft) 100,00 %
20.08.2020 02:28 22,4 C 21,1 C 20,6 C 78 % 1006,3 hPa 0,0 l/m 0 min 0 min 0 W/m 12,9 km/h (3 Bft) 100,00 %
20.08.2020 02:30 22,4 C 21,1 C 20,6 C 78 % 1006,3 hPa 0,0 l/m 0 min 0 min 0 W/m 6,4 km/h (2 Bft) 100,00 %
20.08.2020 02:32 22,4 C 21,1 C 20,6 C 78 % 1006,2 hPa 0,0 l/m 0 min 0 min 0 W/m 6,4 km/h (2 Bft) 100,00 %
20.08.2020 02:34 22,4 C 21,1 C 20,6 C 78 % 1006,2 hPa 0,0 l/m 0 min 0 min 0 W/m 3,2 km/h (1 Bft) 100,00 %
20.08.2020 02:36 22,4 C 21,1 C 20,6 C 78 % 1006,2 hPa 0,0 l/m 0 min 0 min 0 W/m 6,4 km/h (2 Bft) 100,00 %
20.08.2020 02:38 22,4 C 21,1 C 20,6 C 78 % 1006,2 hPa 0,0 l/m 0 min 0 min 0 W/m 6,4 km/h (2 Bft) 100,00 %
20.08.2020 02:40 22,4 C 21,1 C 20,6 C 78 % 1006,2 hPa 0,0 l/m 0 min 0 min 0 W/m 6,4 km/h (2 Bft) 100,00 %
20.08.2020 02:42 22,3 C 21,1 C 20,6 C 78 % 1006,2 hPa 0,0 l/m 0 min 0 min 0 W/m 3,2 km/h (1 Bft) 97,83 %
20.08.2020 02:44 22,4 C 21,1 C 20,6 C 78 % 1006,2 hPa 0,0 l/m 0 min 0 min 0 W/m 6,4 km/h (2 Bft) 97,87 %
20.08.2020 02:46 22,3 C 21,1 C 20,6 C 78 % 1006,1 hPa 0,0 l/m 0 min 0 min 0 W/m 16,1 km/h (3 Bft) 97,87 %
20.08.2020 02:48 22,3 C 21,1 C 20,6 C 79 % 1006,2 hPa 0,0 l/m 0 min 0 min 0 W/m 12,9 km/h (3 Bft) 97,87 %
20.08.2020 02:50 22,3 C 21,1 C 20,6 C 79 % 1006,2 hPa 0,0 l/m 0 min 0 min 0 W/m 6,4 km/h (2 Bft) 97,87 %
20.08.2020 02:52 22,3 C 21,1 C 20,6 C 79 % 1006,1 hPa 0,0 l/m 0 min 0 min 0 W/m 3,2 km/h (1 Bft) 95,74 %
20.08.2020 02:54 22,3 C 20,6 C 20,6 C 79 % 1006,1 hPa 0,0 l/m 0 min 0 min 0 W/m 6,4 km/h (2 Bft) 93,48 %
20.08.2020 02:56 22,3 C 20,6 C 20,6 C 79 % 1006,1 hPa 0,0 l/m 0 min 0 min 0 W/m 6,4 km/h (2 Bft) 97,87 %
20.08.2020 02:58 22,3 C 20,6 C 20,6 C 79 % 1006,0 hPa 0,0 l/m 0 min 0 min 0 W/m 6,4 km/h (2 Bft) 97,87 %
20.08.2020 03:00 22,3 C 20,6 C 20,6 C 79 % 1006,1 hPa 0,0 l/m 0 min 0 min 0 W/m 6,4 km/h (2 Bft) 97,87 %
20.08.2020 03:02 22,2 C 20,6 C 20,6 C 79 % 1006,0 hPa 0,0 l/m 0 min 0 min 0 W/m 6,4 km/h (2 Bft) 95,83 %
20.08.2020 03:04 22,2 C 20,6 C 20,6 C 79 % 1006,0 hPa 0,0 l/m 0 min 0 min 0 W/m 6,4 km/h (2 Bft) 97,87 %
20.08.2020 03:06 22,2 C 20,6 C 20,6 C 79 % 1006,0 hPa 0,0 l/m 0 min 0 min 0 W/m 6,4 km/h (2 Bft) 97,83 %
20.08.2020 03:08 22,2 C 20,6 C 20,6 C 79 % 1006,0 hPa 0,0 l/m 0 min 0 min 0 W/m 3,2 km/h (1 Bft) 95,74 %
20.08.2020 03:10 22,2 C 20,6 C 20,6 C 79 % 1006,0 hPa 0,0 l/m 0 min 0 min 0 W/m 6,4 km/h (2 Bft) 93,62 %
20.08.2020 03:12 22,2 C 20,6 C 20,6 C 79 % 1006,0 hPa 0,0 l/m 0 min 0 min 0 W/m 6,4 km/h (2 Bft) 95,74 %
20.08.2020 03:14 22,1 C 20,6 C 20,6 C 79 % 1006,0 hPa 0,0 l/m 0 min 0 min 0 W/m 6,4 km/h (2 Bft) 97,87 %
20.08.2020 03:16 22,1 C 20,6 C 20,6 C 79 % 1006,0 hPa 0,0 l/m 0 min 0 min 0 W/m 6,4 km/h (2 Bft) 97,87 %
20.08.2020 03:18 22,1 C 20,6 C 20,6 C 79 % 1006,1 hPa 0,0 l/m 0 min 0 min 0 W/m 12,9 km/h (3 Bft) 95,65 %
20.08.2020 03:20 22,1 C 20,6 C 20,6 C 80 % 1006,0 hPa 0,0 l/m 0 min 0 min 0 W/m 6,4 km/h (2 Bft) 97,87 %
20.08.2020 03:22 22,1 C 20,6 C 20,6 C 80 % 1006,0 hPa 0,0 l/m 0 min 0 min 0 W/m 6,4 km/h (2 Bft) 95,74 %
20.08.2020 03:24 22,1 C 20,6 C 20,6 C 80 % 1006,0 hPa 0,0 l/m 0 min 0 min 0 W/m 6,4 km/h (2 Bft) 95,74 %
20.08.2020 03:26 22,1 C 20,6 C 20,6 C 80 % 1006,1 hPa 0,0 l/m 0 min 0 min 0 W/m 12,9 km/h (3 Bft) 95,74 %
20.08.2020 03:28 22,0 C 20,6 C 20,6 C 80 % 1006,1 hPa 0,0 l/m 0 min 0 min 0 W/m 6,4 km/h (2 Bft) 93,48 %
20.08.2020 03:30 22,0 C 20,6 C 20,6 C 80 % 1006,1 hPa 0,0 l/m 0 min 0 min 0 W/m 6,4 km/h (2 Bft) 97,87 %
20.08.2020 03:32 22,0 C 20,6 C 20,6 C 80 % 1006,1 hPa 0,0 l/m 0 min 0 min 0 W/m 6,4 km/h (2 Bft) 97,87 %
20.08.2020 03:34 22,0 C 20,6 C 20,6 C 80 % 1006,2 hPa 0,0 l/m 0 min 0 min 0 W/m 6,4 km/h (2 Bft) 95,74 %
20.08.2020 03:36 22,0 C 20,6 C 20,6 C 81 % 1006,2 hPa 0,0 l/m 0 min 0 min 0 W/m 6,4 km/h (2 Bft) 97,87 %
20.08.2020 03:38 21,9 C 20,6 C 20,0 C 81 % 1006,2 hPa 0,0 l/m 0 min 0 min 0 W/m 0,0 km/h (0 Bft) 97,87 %
20.08.2020 03:40 21,9 C 20,6 C 20,0 C 81 % 1006,2 hPa 0,0 l/m 0 min 0 min 0 W/m 0,0 km/h (0 Bft) 97,83 %
20.08.2020 03:42 21,9 C 20,6 C 20,0 C 81 % 1006,2 hPa 0,0 l/m 0 min 0 min 0 W/m 0,0 km/h (0 Bft) 97,87 %
20.08.2020 03:44 21,9 C 20,6 C 20,0 C 81 % 1006,2 hPa 0,0 l/m 0 min 0 min 0 W/m 12,9 km/h (3 Bft) 95,74 %
20.08.2020 03:46 21,9 C 20,6 C 20,0 C 81 % 1006,3 hPa 0,0 l/m 0 min 0 min 0 W/m 6,4 km/h (2 Bft) 97,87 %
20.08.2020 03:48 21,9 C 20,6 C 20,0 C 81 % 1006,3 hPa 0,0 l/m 0 min 0 min 0 W/m 6,4 km/h (2 Bft) 97,87 %
20.08.2020 03:50 21,9 C 20,0 C 20,0 C 81 % 1006,3 hPa 0,0 l/m 0 min 2 min 0 W/m 6,4 km/h (2 Bft) 97,87 %
20.08.2020 03:52 21,9 C 19,4 C 19,4 C 82 % 1006,3 hPa 0,0 l/m 0 min 2 min 0 W/m 3,2 km/h (1 Bft) 100,00 %
20.08.2020 03:54 21,9 C 18,9 C 19,4 C 82 % 1006,2 hPa 0,0 l/m 0 min 2 min 0 W/m 3,2 km/h (1 Bft) 97,87 %
20.08.2020 03:56 21,9 C 18,9 C 18,9 C 82 % 1006,3 hPa 0,0 l/m 0 min 0 min 0 W/m 3,2 km/h (1 Bft) 95,74 %
20.08.2020 03:58 21,9 C 18,9 C 18,9 C 82 % 1006,3 hPa 0,0 l/m 0 min 0 min 0 W/m 6,4 km/h (2 Bft) 95,74 %
20.08.2020 04:00 21,9 C 18,9 C 18,9 C 83 % 1006,3 hPa 0,0 l/m 0 min 0 min 0 W/m 6,4 km/h (2 Bft) 97,87 %
20.08.2020 04:02 21,9 C 18,9 C 18,9 C 83 % 1006,3 hPa 0,0 l/m 0 min 0 min 0 W/m 3,2 km/h (1 Bft) 93,55 %
20.08.2020 04:04 21,9 C 18,9 C 18,9 C 83 % 1006,3 hPa 0,0 l/m 0 min 0 min 0 W/m 6,4 km/h (2 Bft) 97,83 %
20.08.2020 04:06 21,9 C 19,4 C 18,9 C 83 % 1006,3 hPa 0,0 l/m 0 min 0 min 0 W/m 6,4 km/h (2 Bft) 95,74 %
20.08.2020 04:08 21,8 C 19,4 C 18,9 C 83 % 1006,3 hPa 0,0 l/m 0 min 0 min 0 W/m 6,4 km/h (2 Bft) 93,62 %
20.08.2020 04:10 21,8 C 19,4 C 18,9 C 84 % 1006,2 hPa 0,0 l/m 0 min 0 min 0 W/m 6,4 km/h (2 Bft) 95,74 %
20.08.2020 04:12 21,8 C 19,4 C 18,9 C 84 % 1006,3 hPa 0,0 l/m 0 min 0 min 0 W/m 6,4 km/h (2 Bft) 95,74 %
20.08.2020 04:14 21,8 C 20,0 C 18,9 C 84 % 1006,3 hPa 0,0 l/m 0 min 0 min 0 W/m 3,2 km/h (1 Bft) 95,74 %
20.08.2020 04:16 21,7 C 20,0 C 18,9 C 84 % 1006,2 hPa 0,0 l/m 0 min 0 min 0 W/m 3,2 km/h (1 Bft) 95,65 %
20.08.2020 04:18 21,7 C 20,0 C 18,9 C 84 % 1006,3 hPa 0,0 l/m 0 min 0 min 0 W/m 3,2 km/h (1 Bft) 93,62 %
20.08.2020 04:20 21,7 C 20,0 C 18,9 C 84 % 1006,3 hPa 0,0 l/m 0 min 2 min 0 W/m 12,9 km/h (3 Bft) 97,87 %
20.08.2020 04:22 21,7 C 20,0 C 18,9 C 84 % 1006,4 hPa 0,0 l/m 0 min 0 min 0 W/m 12,9 km/h (3 Bft) 97,87 %
20.08.2020 04:24 21,6 C 20,0 C 19,4 C 85 % 1006,3 hPa 0,0 l/m 0 min 0 min 0 W/m 6,4 km/h (2 Bft) 97,87 %
20.08.2020 04:26 21,6 C 20,0 C 19,4 C 85 % 1006,3 hPa 0,0 l/m 0 min 0 min 0 W/m 6,4 km/h (2 Bft) 97,87 %
20.08.2020 04:28 21,6 C 19,4 C 19,4 C 85 % 1006,4 hPa 0,0 l/m 0 min 2 min 0 W/m 12,9 km/h (3 Bft) 97,83 %
20.08.2020 04:30 21,6 C 18,9 C 19,4 C 85 % 1006,3 hPa 0,0 l/m 0 min 2 min 0 W/m 6,4 km/h (2 Bft) 97,87 %
20.08.2020 04:32 21,6 C 18,9 C 18,9 C 85 % 1006,3 hPa 0,0 l/m 0 min 2 min 0 W/m 6,4 km/h (2 Bft) 97,92 %
20.08.2020 04:34 21,5 C 18,3 C 18,9 C 85 % 1006,3 hPa 0,0 l/m 0 min 2 min 0 W/m 6,4 km/h (2 Bft) 95,74 %
20.08.2020 04:36 21,5 C 18,3 C 18,3 C 85 % 1006,3 hPa 0,0 l/m 0 min 2 min 0 W/m 6,4 km/h (2 Bft) 97,87 %
20.08.2020 04:38 21,5 C 18,3 C 18,3 C 86 % 1006,3 hPa 0,0 l/m 0 min 0 min 0 W/m 6,4 km/h (2 Bft) 97,87 %
20.08.2020 04:40 21,5 C 18,3 C 18,3 C 86 % 1006,3 hPa 0,0 l/m 0 min 0 min 0 W/m 6,4 km/h (2 Bft) 97,83 %
20.08.2020 04:42 21,4 C 18,3 C 18,3 C 86 % 1006,2 hPa 0,0 l/m 0 min 0 min 0 W/m 6,4 km/h (2 Bft) 97,87 %
20.08.2020 04:44 21,4 C 18,9 C 18,3 C 86 % 1006,2 hPa 0,0 l/m 0 min 0 min 0 W/m 6,4 km/h (2 Bft) 97,87 %
20.08.2020 04:46 21,4 C 18,9 C 18,3 C 86 % 1006,3 hPa 0,0 l/m 0 min 0 min 0 W/m 6,4 km/h (2 Bft) 97,87 %
20.08.2020 04:48 21,4 C 18,9 C 18,3 C 86 % 1006,3 hPa 0,0 l/m 0 min 0 min 0 W/m 6,4 km/h (2 Bft) 95,74 %
20.08.2020 04:50 21,3 C 18,9 C 18,3 C 86 % 1006,3 hPa 0,0 l/m 0 min 0 min 0 W/m 3,2 km/h (1 Bft) 97,83 %
20.08.2020 04:52 21,3 C 18,9 C 18,3 C 87 % 1006,2 hPa 0,0 l/m 0 min 0 min 0 W/m 0,0 km/h (0 Bft) 97,87 %
20.08.2020 04:54 21,3 C 18,9 C 18,3 C 87 % 1006,3 hPa 0,0 l/m 0 min 0 min 0 W/m 3,2 km/h (1 Bft) 97,87 %
20.08.2020 04:56 21,3 C 18,9 C 18,3 C 87 % 1006,3 hPa 0,0 l/m 0 min 0 min 0 W/m 6,4 km/h (2 Bft) 97,87 %
20.08.2020 04:58 21,3 C 18,9 C 18,3 C 87 % 1006,3 hPa 0,0 l/m 0 min 0 min 0 W/m 12,9 km/h (3 Bft) 97,87 %
20.08.2020 05:00 21,3 C 18,9 C 18,3 C 87 % 1006,3 hPa 0,0 l/m 0 min 0 min 0 W/m 6,4 km/h (2 Bft) 97,87 %
20.08.2020 05:02 21,2 C 18,9 C 18,3 C 87 % 1006,4 hPa 0,0 l/m 0 min 0 min 0 W/m 6,4 km/h (2 Bft) 95,65 %
20.08.2020 05:04 21,2 C 19,4 C 18,3 C 87 % 1006,3 hPa 0,0 l/m 0 min 0 min 0 W/m 6,4 km/h (2 Bft) 97,87 %
20.08.2020 05:06 21,2 C 19,4 C 18,9 C 87 % 1006,3 hPa 0,0 l/m 0 min 0 min 0 W/m 6,4 km/h (2 Bft) 97,87 %
20.08.2020 05:08 21,2 C 19,4 C 18,9 C 87 % 1006,3 hPa 0,0 l/m 0 min 0 min 0 W/m 0,0 km/h (0 Bft) 97,87 %
20.08.2020 05:10 21,1 C 19,4 C 18,9 C 87 % 1006,3 hPa 0,0 l/m 0 min 0 min 0 W/m 0,0 km/h (0 Bft) 100,00 %
20.08.2020 05:12 21,1 C 19,4 C 18,9 C 87 % 1006,3 hPa 0,0 l/m 0 min 0 min 0 W/m 0,0 km/h (0 Bft) 100,00 %
20.08.2020 05:14 21,1 C 19,4 C 18,9 C 87 % 1006,3 hPa 0,0 l/m 0 min 2 min 0 W/m 3,2 km/h (1 Bft) 100,00 %
20.08.2020 05:16 21,1 C 19,4 C 18,9 C 88 % 1006,2 hPa 0,0 l/m 0 min 0 min 0 W/m 6,4 km/h (2 Bft) 100,00 %
20.08.2020 05:18 21,1 C 19,4 C 18,9 C 88 % 1006,3 hPa 0,0 l/m 0 min 0 min 0 W/m 6,4 km/h (2 Bft) 97,87 %
20.08.2020 05:20 21,1 C 19,4 C 18,9 C 88 % 1006,3 hPa 0,0 l/m 0 min 0 min 0 W/m 3,2 km/h (1 Bft) 97,87 %
20.08.2020 05:22 21,1 C 19,4 C 18,9 C 88 % 1006,3 hPa 0,0 l/m 0 min 0 min 0 W/m 3,2 km/h (1 Bft) 97,87 %
20.08.2020 05:24 21,1 C 19,4 C 18,9 C 88 % 1006,4 hPa 0,0 l/m 0 min 0 min 0 W/m 0,0 km/h (0 Bft) 100,00 %
20.08.2020 05:26 21,1 C 19,4 C 18,9 C 88 % 1006,3 hPa 0,0 l/m 0 min 2 min 0 W/m 0,0 km/h (0 Bft) 100,00 %
20.08.2020 05:28 21,1 C 18,9 C 18,9 C 88 % 1006,3 hPa 0,0 l/m 0 min 2 min 0 W/m 0,0 km/h (0 Bft) 91,89 %
20.08.2020 05:30 21,1 C 18,9 C 18,9 C 88 % 1006,3 hPa 0,0 l/m 0 min 0 min 0 W/m 0,0 km/h (0 Bft) 95,65 %
20.08.2020 05:32 21,1 C 18,9 C 18,9 C 89 % 1006,2 hPa 0,0 l/m 0 min 0 min 0 W/m 0,0 km/h (0 Bft) 92,45 %
20.08.2020 05:34 21,1 C 18,9 C 18,9 C 89 % 1006,2 hPa 0,0 l/m 0 min 0 min 0 W/m 0,0 km/h (0 Bft) 97,87 %
20.08.2020 05:36 21,0 C 18,9 C 18,9 C 89 % 1006,3 hPa 0,0 l/m 0 min 0 min 0 W/m 12,9 km/h (3 Bft) 97,87 %
20.08.2020 05:38 21,0 C 18,9 C 18,9 C 89 % 1006,2 hPa 0,0 l/m 0 min 0 min 0 W/m 0,0 km/h (0 Bft) 97,83 %
20.08.2020 05:40 21,0 C 19,4 C 18,9 C 89 % 1006,3 hPa 0,0 l/m 0 min 0 min 0 W/m 6,4 km/h (2 Bft) 97,87 %
20.08.2020 05:42 21,0 C 19,4 C 18,9 C 89 % 1006,2 hPa 0,0 l/m 0 min 0 min 0 W/m 0,0 km/h (0 Bft) 97,87 %
20.08.2020 05:44 20,9 C 19,4 C 18,9 C 90 % 1006,3 hPa 0,0 l/m 0 min 0 min 0 W/m 0,0 km/h (0 Bft) 97,87 %
20.08.2020 05:46 20,9 C 19,4 C 18,9 C 90 % 1006,3 hPa 0,0 l/m 0 min 0 min 0 W/m 0,0 km/h (0 Bft) 97,87 %
20.08.2020 05:48 20,9 C 19,4 C 18,9 C 90 % 1006,4 hPa 0,0 l/m 0 min 0 min 0 W/m 0,0 km/h (0 Bft) 95,74 %
20.08.2020 05:50 20,9 C 19,4 C 18,9 C 90 % 1006,5 hPa 0,0 l/m 0 min 0 min 0 W/m 0,0 km/h (0 Bft) 97,83 %
20.08.2020 05:52 20,9 C 19,4 C 18,9 C 90 % 1006,4 hPa 0,0 l/m 0 min 0 min 0 W/m 0,0 km/h (0 Bft) 95,74 %
20.08.2020 05:54 20,9 C 19,4 C 18,9 C 90 % 1006,4 hPa 0,0 l/m 0 min 0 min 0 W/m 6,4 km/h (2 Bft) 97,87 %
20.08.2020 05:56 20,9 C 19,4 C 18,9 C 90 % 1006,4 hPa 0,0 l/m 0 min 0 min 0 W/m 0,0 km/h (0 Bft) 97,87 %
20.08.2020 05:58 20,9 C 19,4 C 18,9 C 90 % 1006,5 hPa 0,0 l/m 0 min 0 min 0 W/m 0,0 km/h (0 Bft) 97,87 %
20.08.2020 06:00 20,8 C 19,4 C 18,9 C 90 % 1006,5 hPa 0,0 l/m 0 min 0 min 0 W/m 0,0 km/h (0 Bft) 97,87 %
20.08.2020 06:02 20,8 C 19,4 C 18,9 C 91 % 1006,6 hPa 0,0 l/m 0 min 0 min 0 W/m 0,0 km/h (0 Bft) 95,65 %
20.08.2020 06:04 20,8 C 19,4 C 18,9 C 91 % 1006,6 hPa 0,0 l/m 0 min 0 min 0 W/m 0,0 km/h (0 Bft) 95,74 %
20.08.2020 06:08 20,8 C 19,4 C 18,9 C 91 % 1006,6 hPa 0,0 l/m 0 min 0 min 0 W/m 3,2 km/h (1 Bft) 96,81 %
20.08.2020 06:10 20,8 C 19,4 C 18,9 C 91 % 1006,6 hPa 0,0 l/m 0 min 0 min 0 W/m 0,0 km/h (0 Bft) 97,87 %
20.08.2020 06:12 20,8 C 19,4 C 18,9 C 91 % 1006,7 hPa 0,0 l/m 0 min 0 min 0 W/m 0,0 km/h (0 Bft) 95,74 %
20.08.2020 06:14 20,8 C 19,4 C 18,9 C 91 % 1006,7 hPa 0,0 l/m 0 min 0 min 0 W/m 0,0 km/h (0 Bft) 97,83 %
20.08.2020 06:16 20,7 C 19,4 C 18,9 C 91 % 1006,7 hPa 0,0 l/m 0 min 0 min 0 W/m 0,0 km/h (0 Bft) 95,74 %
20.08.2020 06:18 20,7 C 19,4 C 18,9 C 91 % 1006,7 hPa 0,0 l/m 0 min 0 min 0 W/m 0,0 km/h (0 Bft) 100,00 %
20.08.2020 06:20 20,7 C 19,4 C 18,9 C 91 % 1006,7 hPa 0,0 l/m 0 min 0 min 0 W/m 3,2 km/h (1 Bft) 97,87 %
20.08.2020 06:22 20,7 C 19,4 C 18,9 C 91 % 1006,7 hPa 0,0 l/m 0 min 0 min 0 W/m 0,0 km/h (0 Bft) 97,87 %
20.08.2020 06:24 20,7 C 19,4 C 18,9 C 92 % 1006,7 hPa 0,0 l/m 0 min 0 min 0 W/m 0,0 km/h (0 Bft) 95,74 %
20.08.2020 06:26 20,7 C 19,4 C 18,9 C 92 % 1006,8 hPa 0,0 l/m 0 min 0 min 0 W/m 0,0 km/h (0 Bft) 95,65 %
20.08.2020 06:28 20,7 C 19,4 C 18,9 C 92 % 1006,8 hPa 0,0 l/m 0 min 0 min 0 W/m 3,2 km/h (1 Bft) 97,87 %
20.08.2020 06:30 20,7 C 19,4 C 18,9 C 92 % 1006,9 hPa 0,0 l/m 0 min 0 min 0 W/m 0,0 km/h (0 Bft) 97,87 %
20.08.2020 06:32 20,7 C 19,4 C 18,9 C 92 % 1006,9 hPa 0,0 l/m 0 min 0 min 0 W/m 0,0 km/h (0 Bft) 97,87 %
20.08.2020 06:34 20,7 C 19,4 C 18,9 C 92 % 1006,9 hPa 0,0 l/m 0 min 0 min 0 W/m 0,0 km/h (0 Bft) 97,87 %
20.08.2020 06:36 20,6 C 19,4 C 18,9 C 92 % 1006,9 hPa 0,0 l/m 0 min 0 min 0 W/m 0,0 km/h (0 Bft) 97,83 %
20.08.2020 06:38 20,6 C 19,4 C 18,9 C 92 % 1006,9 hPa 0,0 l/m 0 min 0 min 0 W/m 3,2 km/h (1 Bft) 96,61 %
20.08.2020 06:40 20,6 C 19,4 C 18,9 C 92 % 1006,9 hPa 0,0 l/m 0 min 0 min 0 W/m 0,0 km/h (0 Bft) 100,00 %
20.08.2020 06:42 20,6 C 19,4 C 18,9 C 92 % 1007,0 hPa 0,0 l/m 0 min 0 min 0 W/m 16,1 km/h (3 Bft) 97,87 %
20.08.2020 06:44 20,6 C 19,4 C 18,9 C 92 % 1006,9 hPa 0,0 l/m 0 min 0 min 0 W/m 3,2 km/h (1 Bft) 97,87 %
20.08.2020 06:46 20,6 C 19,4 C 18,9 C 92 % 1006,9 hPa 0,0 l/m 0 min 0 min 0 W/m 0,0 km/h (0 Bft) 93,62 %
20.08.2020 06:48 20,6 C 19,4 C 18,9 C 92 % 1007,0 hPa 0,0 l/m 0 min 0 min 0 W/m 3,2 km/h (1 Bft) 97,83 %
20.08.2020 06:50 20,6 C 19,4 C 18,9 C 93 % 1007,0 hPa 0,0 l/m 0 min 0 min 0 W/m 0,0 km/h (0 Bft) 97,87 %
20.08.2020 06:52 20,6 C 19,4 C 18,9 C 93 % 1007,0 hPa 0,0 l/m 0 min 0 min 5 W/m 0,0 km/h (0 Bft) 97,87 %
20.08.2020 06:54 20,6 C 19,4 C 18,9 C 93 % 1007,0 hPa 0,0 l/m 0 min 0 min 6 W/m 0,0 km/h (0 Bft) 95,74 %
20.08.2020 06:56 20,6 C 19,4 C 18,9 C 93 % 1007,0 hPa 0,0 l/m 0 min 0 min 8 W/m 0,0 km/h (0 Bft) 97,87 %
20.08.2020 06:58 20,6 C 19,4 C 18,9 C 93 % 1007,0 hPa 0,0 l/m 0 min 0 min 11 W/m 3,2 km/h (1 Bft) 97,87 %
20.08.2020 07:00 20,6 C 19,4 C 18,9 C 93 % 1007,0 hPa 0,0 l/m 0 min 0 min 12 W/m 6,4 km/h (2 Bft) 97,83 %
20.08.2020 07:02 20,6 C 19,4 C 19,4 C 93 % 1007,0 hPa 0,0 l/m 0 min 0 min 16 W/m 3,2 km/h (1 Bft) 97,87 %
20.08.2020 07:04 20,6 C 19,4 C 19,4 C 93 % 1007,0 hPa 0,0 l/m 0 min 0 min 18 W/m 3,2 km/h (1 Bft) 97,87 %
20.08.2020 07:06 20,6 C 19,4 C 19,4 C 93 % 1007,0 hPa 0,0 l/m 0 min 0 min 20 W/m 3,2 km/h (1 Bft) 97,87 %
20.08.2020 07:08 20,5 C 19,4 C 19,4 C 93 % 1007,0 hPa 0,0 l/m 0 min 0 min 19 W/m 0,0 km/h (0 Bft) 96,55 %
20.08.2020 07:10 20,5 C 19,4 C 19,4 C 93 % 1007,0 hPa 0,0 l/m 0 min 0 min 16 W/m 3,2 km/h (1 Bft) 97,22 %
20.08.2020 07:12 20,5 C 19,4 C 19,4 C 93 % 1007,0 hPa 0,0 l/m 0 min 0 min 16 W/m 0,0 km/h (0 Bft) 95,65 %
20.08.2020 07:14 20,5 C 19,4 C 19,4 C 93 % 1007,1 hPa 0,0 l/m 0 min 0 min 18 W/m 0,0 km/h (0 Bft) 97,87 %
20.08.2020 07:16 20,5 C 19,4 C 19,4 C 93 % 1007,1 hPa 0,0 l/m 0 min 0 min 23 W/m 3,2 km/h (1 Bft) 97,87 %
20.08.2020 07:18 20,5 C 19,4 C 19,4 C 93 % 1007,2 hPa 0,0 l/m 0 min 0 min 26 W/m 0,0 km/h (0 Bft) 100,00 %
20.08.2020 07:20 20,5 C 20,0 C 19,4 C 93 % 1007,2 hPa 0,0 l/m 0 min 0 min 26 W/m 3,2 km/h (1 Bft) 100,00 %
20.08.2020 07:22 20,5 C 20,0 C 19,4 C 93 % 1007,2 hPa 0,0 l/m 0 min 0 min 26 W/m 0,0 km/h (0 Bft) 100,00 %
20.08.2020 07:24 20,5 C 20,0 C 19,4 C 93 % 1007,2 hPa 0,0 l/m 0 min 0 min 35 W/m 6,4 km/h (2 Bft) 100,00 %
20.08.2020 07:26 20,5 C 20,0 C 19,4 C 93 % 1007,2 hPa 0,0 l/m 0 min 0 min 48 W/m 0,0 km/h (0 Bft) 100,00 %
20.08.2020 07:28 20,5 C 20,0 C 19,4 C 93 % 1007,2 hPa 0,0 l/m 0 min 0 min 50 W/m 0,0 km/h (0 Bft) 100,00 %
20.08.2020 07:30 20,5 C 20,0 C 19,4 C 93 % 1007,2 hPa 0,0 l/m 0 min 0 min 43 W/m 3,2 km/h (1 Bft) 97,87 %
20.08.2020 07:32 20,5 C 20,0 C 19,4 C 93 % 1007,1 hPa 0,0 l/m 0 min 0 min 38 W/m 3,2 km/h (1 Bft) 100,00 %
20.08.2020 07:34 20,6 C 20,0 C 19,4 C 93 % 1007,1 hPa 0,0 l/m 0 min 0 min 35 W/m 0,0 km/h (0 Bft) 97,87 %
20.08.2020 07:36 20,6 C 20,0 C 19,4 C 93 % 1007,0 hPa 0,0 l/m 0 min 0 min 33 W/m 3,2 km/h (1 Bft) 97,83 %
20.08.2020 07:38 20,6 C 20,0 C 19,4 C 93 % 1007,0 hPa 0,0 l/m 0 min 0 min 33 W/m 6,4 km/h (2 Bft) 97,87 %
20.08.2020 07:40 20,6 C 20,0 C 19,4 C 93 % 1007,0 hPa 0,0 l/m 0 min 0 min 32 W/m 9,7 km/h (2 Bft) 97,87 %
20.08.2020 07:42 20,6 C 20,0 C 19,4 C 93 % 1007,0 hPa 0,0 l/m 0 min 0 min 33 W/m 3,2 km/h (1 Bft) 97,87 %
20.08.2020 07:44 20,6 C 20,0 C 19,4 C 93 % 1007,1 hPa 0,0 l/m 0 min 0 min 35 W/m 3,2 km/h (1 Bft) 97,87 %
20.08.2020 07:46 20,6 C 20,0 C 19,4 C 93 % 1007,2 hPa 0,0 l/m 0 min 0 min 48 W/m 6,4 km/h (2 Bft) 97,83 %
20.08.2020 07:48 20,6 C 20,0 C 19,4 C 93 % 1007,2 hPa 0,0 l/m 0 min 0 min 55 W/m 3,2 km/h (1 Bft) 97,87 %
20.08.2020 07:50 20,6 C 20,6 C 19,4 C 93 % 1007,3 hPa 0,0 l/m 0 min 0 min 54 W/m 12,9 km/h (3 Bft) 97,87 %
20.08.2020 07:52 20,6 C 20,6 C 19,4 C 93 % 1007,4 hPa 0,0 l/m 0 min 0 min 44 W/m 0,0 km/h (0 Bft) 95,74 %
20.08.2020 07:54 20,6 C 20,6 C 19,4 C 93 % 1007,4 hPa 0,0 l/m 0 min 0 min 34 W/m 6,4 km/h (2 Bft) 97,87 %
20.08.2020 07:56 20,6 C 20,6 C 19,4 C 93 % 1007,5 hPa 0,0 l/m 0 min 0 min 28 W/m 3,2 km/h (1 Bft) 95,74 %
20.08.2020 07:58 20,6 C 20,6 C 19,4 C 93 % 1007,6 hPa 0,0 l/m 0 min 0 min 30 W/m 6,4 km/h (2 Bft) 97,83 %
20.08.2020 08:00 20,6 C 20,6 C 19,4 C 93 % 1007,6 hPa 0,0 l/m 0 min 0 min 37 W/m 0,0 km/h (0 Bft) 95,74 %
20.08.2020 08:02 20,7 C 20,6 C 19,4 C 93 % 1007,6 hPa 0,0 l/m 0 min 0 min 51 W/m 3,2 km/h (1 Bft) 95,74 %
20.08.2020 08:04 20,7 C 20,6 C 20,0 C 93 % 1007,6 hPa 0,0 l/m 0 min 0 min 61 W/m 3,2 km/h (1 Bft) 97,87 %
20.08.2020 08:06 20,7 C 20,6 C 20,0 C 93 % 1007,7 hPa 0,0 l/m 0 min 0 min 64 W/m 0,0 km/h (0 Bft) 98,28 %
20.08.2020 08:08 20,7 C 20,6 C 20,0 C 93 % 1007,7 hPa 0,0 l/m 0 min 0 min 58 W/m 3,2 km/h (1 Bft) 94,44 %
20.08.2020 08:10 20,7 C 20,6 C 20,0 C 93 % 1007,7 hPa 0,0 l/m 0 min 0 min 48 W/m 0,0 km/h (0 Bft) 95,65 %
20.08.2020 08:12 20,8 C 20,6 C 20,0 C 93 % 1007,8 hPa 0,0 l/m 0 min 0 min 43 W/m 0,0 km/h (0 Bft) 95,74 %
20.08.2020 08:14 20,8 C 20,6 C 20,0 C 93 % 1007,8 hPa 0,0 l/m 0 min 0 min 38 W/m 3,2 km/h (1 Bft) 95,74 %
20.08.2020 08:16 20,8 C 20,6 C 20,0 C 93 % 1007,9 hPa 0,0 l/m 0 min 0 min 34 W/m 0,0 km/h (0 Bft) 95,74 %
20.08.2020 08:18 20,8 C 20,6 C 20,0 C 93 % 1007,9 hPa 0,0 l/m 0 min 0 min 26 W/m 3,2 km/h (1 Bft) 95,74 %
20.08.2020 08:20 20,8 C 20,6 C 20,0 C 93 % 1007,9 hPa 0,0 l/m 0 min 0 min 27 W/m 3,2 km/h (1 Bft) 95,74 %
20.08.2020 08:22 20,9 C 20,6 C 20,0 C 93 % 1007,9 hPa 0,0 l/m 0 min 0 min 31 W/m 6,4 km/h (2 Bft) 93,48 %
20.08.2020 08:24 20,9 C 20,6 C 20,0 C 93 % 1007,9 hPa 0,0 l/m 0 min 0 min 37 W/m 0,0 km/h (0 Bft) 91,49 %
20.08.2020 08:26 20,9 C 20,6 C 20,0 C 93 % 1007,9 hPa 0,0 l/m 0 min 0 min 50 W/m 0,0 km/h (0 Bft) 95,74 %
20.08.2020 08:28 20,9 C 20,6 C 20,0 C 93 % 1008,0 hPa 0,0 l/m 0 min 0 min 67 W/m 3,2 km/h (1 Bft) 93,62 %
20.08.2020 08:30 20,9 C 20,6 C 20,0 C 93 % 1007,9 hPa 0,0 l/m 0 min 0 min 76 W/m 0,0 km/h (0 Bft) 96,08 %
20.08.2020 08:32 20,9 C 20,6 C 20,0 C 93 % 1008,0 hPa 0,0 l/m 0 min 0 min 79 W/m 0,0 km/h (0 Bft) 95,65 %
20.08.2020 08:34 20,9 C 20,6 C 20,0 C 93 % 1008,1 hPa 0,0 l/m 0 min 2 min 71 W/m 0,0 km/h (0 Bft) 97,87 %
20.08.2020 08:36 21,0 C 20,0 C 20,0 C 93 % 1008,1 hPa 0,0 l/m 0 min 2 min 62 W/m 0,0 km/h (0 Bft) 97,87 %
20.08.2020 08:38 21,0 C 20,0 C 20,0 C 93 % 1008,1 hPa 0,0 l/m 0 min 0 min 69 W/m 0,0 km/h (0 Bft) 97,87 %
20.08.2020 08:40 21,1 C 20,0 C 19,4 C 93 % 1008,0 hPa 0,0 l/m 0 min 0 min 74 W/m 0,0 km/h (0 Bft) 95,74 %
20.08.2020 08:42 21,1 C 20,0 C 19,4 C 93 % 1008,1 hPa 0,0 l/m 0 min 0 min 67 W/m 0,0 km/h (0 Bft) 95,74 %
20.08.2020 08:44 21,1 C 20,0 C 20,0 C 93 % 1008,1 hPa 0,0 l/m 0 min 0 min 77 W/m 0,0 km/h (0 Bft) 97,83 %
20.08.2020 08:46 21,1 C 20,6 C 20,0 C 93 % 1008,1 hPa 0,0 l/m 0 min 0 min 84 W/m 0,0 km/h (0 Bft) 97,87 %
20.08.2020 08:48 21,1 C 20,6 C 20,0 C 93 % 1008,1 hPa 0,0 l/m 0 min 0 min 92 W/m 0,0 km/h (0 Bft) 97,87 %
20.08.2020 08:50 21,2 C 20,6 C 20,0 C 93 % 1008,1 hPa 0,0 l/m 0 min 0 min 97 W/m 0,0 km/h (0 Bft) 95,74 %
20.08.2020 08:52 21,2 C 20,6 C 20,0 C 93 % 1008,1 hPa 0,0 l/m 0 min 0 min 111 W/m 0,0 km/h (0 Bft) 97,87 %
20.08.2020 08:54 21,2 C 20,6 C 20,0 C 93 % 1008,2 hPa 0,0 l/m 0 min 0 min 107 W/m 3,2 km/h (1 Bft) 100,00 %
20.08.2020 08:56 21,2 C 21,1 C 20,0 C 93 % 1008,3 hPa 0,0 l/m 0 min 0 min 104 W/m 0,0 km/h (0 Bft) 100,00 %
20.08.2020 08:58 21,3 C 21,1 C 20,0 C 93 % 1008,2 hPa 0,0 l/m 0 min 0 min 96 W/m 0,0 km/h (0 Bft) 97,87 %
20.08.2020 09:00 21,3 C 21,1 C 20,0 C 93 % 1008,2 hPa 0,0 l/m 0 min 0 min 81 W/m 3,2 km/h (1 Bft) 100,00 %
20.08.2020 09:02 21,3 C 21,1 C 20,0 C 93 % 1008,2 hPa 0,0 l/m 0 min 0 min 66 W/m 3,2 km/h (1 Bft) 100,00 %
20.08.2020 09:04 21,3 C 21,1 C 20,0 C 93 % 1008,3 hPa 0,0 l/m 0 min 0 min 63 W/m 3,2 km/h (1 Bft) 100,00 %
20.08.2020 09:06 21,3 C 21,1 C 20,0 C 93 % 1008,3 hPa 0,0 l/m 0 min 0 min 81 W/m 0,0 km/h (0 Bft) 97,83 %
20.08.2020 09:08 21,3 C 21,1 C 20,0 C 93 % 1008,2 hPa 0,0 l/m 0 min 0 min 111 W/m 0,0 km/h (0 Bft) 97,87 %
20.08.2020 09:10 21,3 C 21,7 C 20,6 C 93 % 1008,2 hPa 0,0 l/m 0 min 0 min 129 W/m 0,0 km/h (0 Bft) 100,00 %
20.08.2020 09:12 21,4 C 21,7 C 20,6 C 93 % 1008,3 hPa 0,0 l/m 0 min 0 min 152 W/m 0,0 km/h (0 Bft) 100,00 %
20.08.2020 09:14 21,4 C 22,2 C 20,6 C 93 % 1008,2 hPa 0,0 l/m 0 min 0 min 176 W/m 3,2 km/h (1 Bft) 97,87 %
20.08.2020 09:16 21,4 C 22,2 C 21,1 C 93 % 1008,3 hPa 0,0 l/m 0 min 0 min 196 W/m 0,0 km/h (0 Bft) 97,87 %
20.08.2020 09:18 21,4 C 22,8 C 21,1 C 93 % 1008,3 hPa 0,0 l/m 0 min 0 min 171 W/m 0,0 km/h (0 Bft) 97,83 %
20.08.2020 09:20 21,4 C 22,8 C 21,1 C 93 % 1008,3 hPa 0,0 l/m 0 min 0 min 146 W/m 0,0 km/h (0 Bft) 97,87 %
20.08.2020 09:22 21,5 C 22,8 C 21,1 C 93 % 1008,4 hPa 0,0 l/m 0 min 0 min 124 W/m 0,0 km/h (0 Bft) 100,00 %
20.08.2020 09:24 21,6 C 22,8 C 21,1 C 93 % 1008,4 hPa 0,0 l/m 0 min 0 min 104 W/m 0,0 km/h (0 Bft) 100,00 %
20.08.2020 09:26 21,6 C 22,2 C 21,1 C 93 % 1008,4 hPa 0,0 l/m 0 min 0 min 95 W/m 0,0 km/h (0 Bft) 97,87 %
20.08.2020 09:28 21,6 C 22,2 C 21,1 C 93 % 1008,5 hPa 0,0 l/m 0 min 0 min 95 W/m 6,4 km/h (2 Bft) 97,87 %
20.08.2020 09:30 21,6 C 22,2 C 21,1 C 93 % 1008,5 hPa 0,0 l/m 0 min 0 min 97 W/m 3,2 km/h (1 Bft) 97,83 %
20.08.2020 09:32 21,6 C 22,2 C 21,1 C 93 % 1008,5 hPa 0,0 l/m 0 min 0 min 118 W/m 0,0 km/h (0 Bft) 97,87 %
20.08.2020 09:34 21,7 C 22,2 C 21,1 C 93 % 1008,5 hPa 0,0 l/m 0 min 0 min 139 W/m 0,0 km/h (0 Bft) 97,87 %
20.08.2020 09:36 21,7 C 22,2 C 21,1 C 93 % 1008,5 hPa 0,0 l/m 0 min 0 min 148 W/m 3,2 km/h (1 Bft) 97,87 %
20.08.2020 09:38 21,8 C 22,8 C 21,1 C 92 % 1008,4 hPa 0,0 l/m 0 min 0 min 157 W/m 0,0 km/h (0 Bft) 95,74 %
20.08.2020 09:40 21,8 C 23,3 C 21,7 C 93 % 1008,4 hPa 0,0 l/m 0 min 0 min 205 W/m 0,0 km/h (0 Bft) 97,87 %
20.08.2020 09:42 21,8 C 23,9 C 22,2 C 93 % 1008,4 hPa 0,0 l/m 0 min 0 min 228 W/m 0,0 km/h (0 Bft) 95,65 %
20.08.2020 09:44 21,9 C 23,9 C 22,8 C 93 % 1008,4 hPa 0,0 l/m 0 min 0 min 187 W/m 0,0 km/h (0 Bft) 97,87 %
20.08.2020 09:46 21,9 C 24,4 C 23,3 C 92 % 1008,4 hPa 0,0 l/m 0 min 0 min 208 W/m 0,0 km/h (0 Bft) 97,87 %
20.08.2020 09:48 22,0 C 25,0 C 24,4 C 92 % 1008,4 hPa 0,0 l/m 0 min 0 min 216 W/m 3,2 km/h (1 Bft) 97,87 %
20.08.2020 09:50 22,1 C 26,1 C 25,0 C 92 % 1008,4 hPa 0,0 l/m 0 min 0 min 216 W/m 0,0 km/h (0 Bft) 97,87 %
20.08.2020 09:52 22,2 C 26,7 C 26,7 C 92 % 1008,5 hPa 0,0 l/m 2 min 0 min 346 W/m 0,0 km/h (0 Bft) 97,87 %
20.08.2020 09:54 22,3 C 26,7 C 27,2 C 92 % 1008,5 hPa 0,0 l/m 2 min 0 min 348 W/m 3,2 km/h (1 Bft) 97,83 %
20.08.2020 09:56 22,4 C 27,2 C 27,8 C 92 % 1008,5 hPa 0,0 l/m 2 min 0 min 338 W/m 3,2 km/h (1 Bft) 97,87 %
20.08.2020 09:58 22,6 C 28,3 C 29,4 C 91 % 1008,5 hPa 0,0 l/m 2 min 0 min 525 W/m 3,2 km/h (1 Bft) 97,87 %
20.08.2020 10:00 22,7 C 29,4 C 31,1 C 91 % 1008,4 hPa 0,0 l/m 2 min 0 min 521 W/m 0,0 km/h (0 Bft) 93,62 %
20.08.2020 10:02 22,8 C 30,0 C 32,2 C 91 % 1008,5 hPa 0,0 l/m 2 min 0 min 529 W/m 0,0 km/h (0 Bft) 97,87 %
20.08.2020 10:04 23,0 C 30,0 C 32,2 C 91 % 1008,5 hPa 0,0 l/m 2 min 0 min 538 W/m 0,0 km/h (0 Bft) 97,87 %
20.08.2020 10:06 23,2 C 30,6 C 32,8 C 91 % 1008,5 hPa 0,0 l/m 2 min 0 min 552 W/m 0,0 km/h (0 Bft) 97,83 %
20.08.2020 10:08 23,3 C 31,1 C 32,8 C 90 % 1008,6 hPa 0,0 l/m 2 min 0 min 575 W/m 0,0 km/h (0 Bft) 97,87 %
20.08.2020 10:10 23,6 C 31,1 C 33,3 C 90 % 1008,6 hPa 0,0 l/m 2 min 0 min 623 W/m 0,0 km/h (0 Bft) 97,87 %
20.08.2020 10:12 23,7 C 30,0 C 32,8 C 89 % 1008,6 hPa 0,0 l/m 2 min 0 min 640 W/m 16,1 km/h (3 Bft) 97,87 %
20.08.2020 10:14 23,9 C 30,0 C 31,7 C 88 % 1008,6 hPa 0,0 l/m 2 min 0 min 600 W/m 16,1 km/h (3 Bft) 97,87 %
20.08.2020 10:16 24,1 C 30,0 C 30,6 C 87 % 1008,6 hPa 0,0 l/m 2 min 0 min 478 W/m 6,4 km/h (2 Bft) 97,83 %
20.08.2020 10:18 24,3 C 28,9 C 28,9 C 86 % 1008,6 hPa 0,0 l/m 2 min 0 min 405 W/m 0,0 km/h (0 Bft) 97,87 %
20.08.2020 10:20 24,4 C 28,3 C 28,3 C 85 % 1008,6 hPa 0,0 l/m 2 min 0 min 377 W/m 0,0 km/h (0 Bft) 97,87 %
20.08.2020 10:22 24,6 C 28,9 C 28,3 C 84 % 1008,6 hPa 0,0 l/m 2 min 0 min 425 W/m 0,0 km/h (0 Bft) 97,87 %
20.08.2020 10:24 24,7 C 28,9 C 28,3 C 84 % 1008,7 hPa 0,0 l/m 2 min 0 min 474 W/m 0,0 km/h (0 Bft) 97,87 %
20.08.2020 10:26 24,9 C 28,3 C 27,8 C 83 % 1008,7 hPa 0,0 l/m 2 min 0 min 448 W/m 12,9 km/h (3 Bft) 95,74 %
20.08.2020 10:28 25,0 C 28,9 C 28,3 C 82 % 1008,7 hPa 0,0 l/m 2 min 0 min 527 W/m 12,9 km/h (3 Bft) 97,83 %
20.08.2020 10:30 25,1 C 27,8 C 27,8 C 82 % 1008,8 hPa 0,0 l/m 2 min 0 min 498 W/m 16,1 km/h (3 Bft) 97,87 %
20.08.2020 10:32 25,2 C 27,8 C 27,2 C 81 % 1008,8 hPa 0,0 l/m 2 min 0 min 422 W/m 6,4 km/h (2 Bft) 100,00 %
20.08.2020 10:34 25,2 C 27,8 C 26,7 C 81 % 1008,9 hPa 0,0 l/m 2 min 0 min 381 W/m 16,1 km/h (3 Bft) 100,00 %
20.08.2020 10:36 25,3 C 27,8 C 26,1 C 81 % 1008,9 hPa 0,0 l/m 2 min 0 min 374 W/m 0,0 km/h (0 Bft) 97,87 %
20.08.2020 10:38 25,4 C 28,3 C 26,1 C 81 % 1009,0 hPa 0,0 l/m 2 min 0 min 392 W/m 0,0 km/h (0 Bft) 97,87 %
20.08.2020 10:40 25,5 C 28,9 C 26,7 C 81 % 1008,9 hPa 0,0 l/m 2 min 0 min 418 W/m 0,0 km/h (0 Bft) 97,83 %
20.08.2020 10:42 25,6 C 28,9 C 26,7 C 82 % 1008,9 hPa 0,0 l/m 2 min 0 min 406 W/m 0,0 km/h (0 Bft) 95,74 %
20.08.2020 10:44 25,7 C 29,4 C 26,7 C 81 % 1009,0 hPa 0,0 l/m 2 min 0 min 499 W/m 0,0 km/h (0 Bft) 97,87 %
20.08.2020 10:46 25,7 C 29,4 C 26,1 C 80 % 1009,0 hPa 0,0 l/m 2 min 0 min 452 W/m 6,4 km/h (2 Bft) 97,87 %
20.08.2020 10:48 25,8 C 30,0 C 26,1 C 80 % 1008,9 hPa 0,0 l/m 2 min 0 min 429 W/m 12,9 km/h (3 Bft) 97,87 %
20.08.2020 10:50 25,9 C 29,4 C 26,1 C 80 % 1009,0 hPa 0,0 l/m 2 min 0 min 429 W/m 16,1 km/h (3 Bft) 95,74 %
20.08.2020 10:52 25,9 C 29,4 C 26,1 C 80 % 1009,0 hPa 0,0 l/m 2 min 0 min 463 W/m 6,4 km/h (2 Bft) 95,65 %
20.08.2020 10:54 26,0 C 28,3 C 25,6 C 80 % 1009,1 hPa 0,0 l/m 2 min 0 min 334 W/m 0,0 km/h (0 Bft) 93,62 %
20.08.2020 10:56 26,1 C 27,8 C 25,6 C 78 % 1009,0 hPa 0,0 l/m 0 min 0 min 211 W/m 0,0 km/h (0 Bft) 93,62 %
20.08.2020 10:58 26,1 C 26,7 C 25,0 C 78 % 1009,1 hPa 0,0 l/m 0 min 0 min 242 W/m 12,9 km/h (3 Bft) 93,62 %
20.08.2020 11:00 26,1 C 27,2 C 25,0 C 78 % 1009,0 hPa 0,0 l/m 0 min 0 min 310 W/m 9,7 km/h (2 Bft) 93,62 %
20.08.2020 11:02 26,1 C 27,8 C 25,6 C 78 % 1009,0 hPa 0,0 l/m 2 min 0 min 371 W/m 3,2 km/h (1 Bft) 95,74 %
20.08.2020 11:04 26,1 C 27,8 C 25,6 C 78 % 1009,0 hPa 0,0 l/m 2 min 0 min 381 W/m 0,0 km/h (0 Bft) 95,65 %
20.08.2020 11:06 26,1 C 27,8 C 25,6 C 77 % 1008,9 hPa 0,0 l/m 2 min 0 min 357 W/m 16,1 km/h (3 Bft) 93,62 %
20.08.2020 11:08 26,2 C 27,8 C 25,6 C 77 % 1008,9 hPa 0,0 l/m 0 min 0 min 298 W/m 0,0 km/h (0 Bft) 93,62 %
20.08.2020 11:10 26,2 C 27,2 C 25,6 C 78 % 1008,9 hPa 0,0 l/m 0 min 0 min 245 W/m 3,2 km/h (1 Bft) 95,74 %
20.08.2020 11:12 26,2 C 27,2 C 25,6 C 77 % 1008,9 hPa 0,0 l/m 0 min 0 min 289 W/m 9,7 km/h (2 Bft) 95,74 %
20.08.2020 11:14 26,2 C 28,9 C 25,6 C 77 % 1009,0 hPa 0,0 l/m 2 min 0 min 415 W/m 12,9 km/h (3 Bft) 95,65 %
20.08.2020 11:16 26,3 C 28,9 C 26,1 C 77 % 1009,0 hPa 0,0 l/m 2 min 0 min 429 W/m 6,4 km/h (2 Bft) 93,62 %
20.08.2020 11:18 26,3 C 29,4 C 26,1 C 77 % 1008,9 hPa 0,0 l/m 2 min 0 min 364 W/m 6,4 km/h (2 Bft) 95,74 %
20.08.2020 11:20 26,3 C 28,9 C 26,1 C 77 % 1008,9 hPa 0,0 l/m 2 min 0 min 330 W/m 12,9 km/h (3 Bft) 93,62 %
20.08.2020 11:22 26,4 C 28,3 C 25,6 C 76 % 1008,9 hPa 0,0 l/m 0 min 0 min 300 W/m 3,2 km/h (1 Bft) 95,74 %
20.08.2020 11:24 26,4 C 29,4 C 25,6 C 77 % 1008,9 hPa 0,0 l/m 2 min 0 min 427 W/m 0,0 km/h (0 Bft) 97,87 %
20.08.2020 11:26 26,4 C 30,6 C 26,1 C 77 % 1009,0 hPa 0,0 l/m 2 min 0 min 659 W/m 12,9 km/h (3 Bft) 97,87 %
20.08.2020 11:28 26,5 C 30,0 C 26,1 C 76 % 1009,0 hPa 0,0 l/m 2 min 0 min 581 W/m 6,4 km/h (2 Bft) 97,83 %
20.08.2020 11:30 26,6 C 30,0 C 26,1 C 76 % 1008,9 hPa 0,0 l/m 2 min 0 min 423 W/m 0,0 km/h (0 Bft) 95,74 %
20.08.2020 11:32 26,7 C 31,1 C 26,1 C 76 % 1008,9 hPa 0,0 l/m 2 min 0 min 581 W/m 12,9 km/h (3 Bft) 97,87 %
20.08.2020 11:34 26,7 C 30,6 C 26,7 C 75 % 1008,9 hPa 0,0 l/m 2 min 0 min 591 W/m 12,9 km/h (3 Bft) 97,87 %
20.08.2020 11:36 26,8 C 32,2 C 26,7 C 76 % 1009,0 hPa 0,0 l/m 2 min 0 min 536 W/m 0,0 km/h (0 Bft) 97,87 %
20.08.2020 11:38 26,9 C 32,8 C 27,2 C 77 % 1008,9 hPa 0,0 l/m 2 min 0 min 676 W/m 3,2 km/h (1 Bft) 95,65 %
20.08.2020 11:40 27,1 C 32,8 C 27,2 C 76 % 1008,9 hPa 0,0 l/m 2 min 0 min 541 W/m 0,0 km/h (0 Bft) 97,87 %
20.08.2020 11:42 27,1 C 32,8 C 26,7 C 76 % 1009,0 hPa 0,0 l/m 2 min 0 min 448 W/m 0,0 km/h (0 Bft) 97,87 %
20.08.2020 11:44 27,2 C 32,2 C 26,7 C 76 % 1009,0 hPa 0,0 l/m 2 min 0 min 462 W/m 16,1 km/h (3 Bft) 100,00 %
20.08.2020 11:46 27,3 C 32,2 C 26,7 C 75 % 1009,0 hPa 0,0 l/m 2 min 0 min 537 W/m 0,0 km/h (0 Bft) 100,00 %
20.08.2020 11:48 27,4 C 33,3 C 27,2 C 76 % 1008,9 hPa 0,0 l/m 2 min 0 min 468 W/m 0,0 km/h (0 Bft) 97,87 %
20.08.2020 11:50 27,6 C 33,3 C 27,2 C 75 % 1008,9 hPa 0,0 l/m 2 min 0 min 434 W/m 0,0 km/h (0 Bft) 100,00 %
20.08.2020 11:52 27,6 C 32,2 C 27,2 C 73 % 1008,9 hPa 0,0 l/m 2 min 0 min 491 W/m 3,2 km/h (1 Bft) 100,00 %
20.08.2020 11:54 27,7 C 31,1 C 27,2 C 73 % 1008,9 hPa 0,0 l/m 2 min 0 min 415 W/m 12,9 km/h (3 Bft) 100,00 %
20.08.2020 11:56 27,7 C 30,6 C 27,2 C 72 % 1008,9 hPa 0,0 l/m 2 min 0 min 425 W/m 19,3 km/h (3 Bft) 97,87 %
20.08.2020 11:58 27,8 C 30,0 C 27,2 C 71 % 1008,9 hPa 0,0 l/m 2 min 0 min 393 W/m 9,7 km/h (2 Bft) 100,00 %
20.08.2020 12:00 27,8 C 28,9 C 26,7 C 70 % 1008,9 hPa 0,0 l/m 0 min 0 min 343 W/m 19,3 km/h (3 Bft) 100,00 %
20.08.2020 12:02 27,9 C 30,0 C 26,7 C 71 % 1009,0 hPa 0,0 l/m 0 min 0 min 351 W/m 0,0 km/h (0 Bft) 100,00 %
20.08.2020 12:04 27,9 C 30,6 C 26,7 C 72 % 1008,9 hPa 0,0 l/m 2 min 0 min 420 W/m 12,9 km/h (3 Bft) 97,87 %
20.08.2020 12:08 27,9 C 31,7 C 26,7 C 71 % 1009,0 hPa 0,0 l/m 4 min 0 min 357 W/m 9,7 km/h (2 Bft) 98,94 %
20.08.2020 12:10 28,0 C 31,7 C 26,7 C 70 % 1009,0 hPa 0,0 l/m 0 min 0 min 348 W/m 3,2 km/h (1 Bft) 100,00 %
20.08.2020 12:12 28,0 C 29,4 C 26,7 C 70 % 1009,0 hPa 0,0 l/m 0 min 0 min 243 W/m 12,9 km/h (3 Bft) 100,00 %
20.08.2020 12:14 28,1 C 28,9 C 26,7 C 70 % 1009,1 hPa 0,0 l/m 0 min 0 min 182 W/m 0,0 km/h (0 Bft) 100,00 %
20.08.2020 12:16 28,1 C 30,6 C 26,1 C 71 % 1009,0 hPa 0,0 l/m 0 min 0 min 257 W/m 3,2 km/h (1 Bft) 100,00 %
20.08.2020 12:18 28,1 C 31,7 C 26,1 C 70 % 1008,9 hPa 0,0 l/m 2 min 0 min 801 W/m 6,4 km/h (2 Bft) 100,00 %
20.08.2020 12:20 28,1 C 30,6 C 26,1 C 70 % 1009,0 hPa 0,0 l/m 2 min 0 min 576 W/m 6,4 km/h (2 Bft) 97,87 %
20.08.2020 12:22 28,1 C 31,1 C 26,1 C 70 % 1009,0 hPa 0,0 l/m 0 min 0 min 268 W/m 6,4 km/h (2 Bft) 97,87 %
20.08.2020 12:24 28,1 C 31,1 C 26,7 C 70 % 1009,0 hPa 0,0 l/m 2 min 0 min 823 W/m 6,4 km/h (2 Bft) 93,62 %
20.08.2020 12:26 28,1 C 30,0 C 26,1 C 70 % 1008,9 hPa 0,0 l/m 2 min 0 min 612 W/m 16,1 km/h (3 Bft) 100,00 %
20.08.2020 12:28 28,1 C 32,2 C 26,1 C 70 % 1009,0 hPa 0,0 l/m 2 min 0 min 722 W/m 3,2 km/h (1 Bft) 100,00 %
20.08.2020 12:30 28,2 C 33,3 C 26,7 C 72 % 1008,9 hPa 0,0 l/m 2 min 0 min 929 W/m 0,0 km/h (0 Bft) 97,87 %
20.08.2020 12:32 28,2 C 35,0 C 26,7 C 71 % 1009,0 hPa 0,0 l/m 2 min 0 min 922 W/m 9,7 km/h (2 Bft) 97,87 %
20.08.2020 12:34 28,3 C 34,4 C 27,2 C 70 % 1008,9 hPa 0,0 l/m 2 min 0 min 946 W/m 12,9 km/h (3 Bft) 97,87 %
20.08.2020 12:36 28,4 C 35,0 C 27,2 C 70 % 1008,9 hPa 0,0 l/m 2 min 0 min 939 W/m 0,0 km/h (0 Bft) 100,00 %
20.08.2020 12:38 28,4 C 35,0 C 27,2 C 69 % 1008,8 hPa 0,0 l/m 2 min 0 min 931 W/m 16,1 km/h (3 Bft) 100,00 %
20.08.2020 12:40 28,6 C 33,3 C 27,2 C 69 % 1008,9 hPa 0,0 l/m 2 min 0 min 946 W/m 16,1 km/h (3 Bft) 97,87 %
20.08.2020 12:42 28,6 C 34,4 C 27,2 C 69 % 1008,9 hPa 0,0 l/m 2 min 0 min 1011 W/m 12,9 km/h (3 Bft) 97,87 %
20.08.2020 12:44 28,7 C 34,4 C 27,8 C 69 % 1009,0 hPa 0,0 l/m 2 min 0 min 1052 W/m 6,4 km/h (2 Bft) 97,87 %
20.08.2020 12:46 28,8 C 32,8 C 27,8 C 69 % 1008,9 hPa 0,0 l/m 2 min 0 min 900 W/m 16,1 km/h (3 Bft) 95,74 %
20.08.2020 12:48 28,8 C 31,7 C 27,8 C 68 % 1008,9 hPa 0,0 l/m 2 min 0 min 405 W/m 3,2 km/h (1 Bft) 97,83 %
20.08.2020 12:50 28,8 C 31,7 C 27,8 C 67 % 1008,9 hPa 0,0 l/m 2 min 0 min 473 W/m 16,1 km/h (3 Bft) 97,87 %
20.08.2020 12:52 28,9 C 32,2 C 27,8 C 67 % 1008,9 hPa 0,0 l/m 2 min 0 min 533 W/m 16,1 km/h (3 Bft) 95,74 %
20.08.2020 12:54 28,9 C 33,9 C 27,8 C 67 % 1008,9 hPa 0,0 l/m 2 min 0 min 559 W/m 19,3 km/h (3 Bft) 97,87 %
20.08.2020 12:56 28,9 C 34,4 C 27,8 C 68 % 1008,8 hPa 0,0 l/m 2 min 0 min 1052 W/m 16,1 km/h (3 Bft) 97,87 %
20.08.2020 12:58 29,0 C 34,4 C 27,8 C 67 % 1008,9 hPa 0,0 l/m 2 min 0 min 987 W/m 22,5 km/h (4 Bft) 97,87 %
20.08.2020 13:00 29,1 C 34,4 C 27,8 C 67 % 1008,8 hPa 0,0 l/m 2 min 0 min 942 W/m 16,1 km/h (3 Bft) 97,83 %
20.08.2020 13:02 29,2 C 33,9 C 27,8 C 67 % 1008,8 hPa 0,0 l/m 2 min 0 min 939 W/m 12,9 km/h (3 Bft) 97,87 %
20.08.2020 13:04 29,2 C 33,9 C 27,8 C 66 % 1008,8 hPa 0,0 l/m 2 min 0 min 922 W/m 3,2 km/h (1 Bft) 97,87 %
20.08.2020 13:06 29,3 C 34,4 C 27,2 C 67 % 1008,8 hPa 0,0 l/m 2 min 0 min 887 W/m 12,9 km/h (3 Bft) 97,87 %
20.08.2020 13:08 29,3 C 35,6 C 27,2 C 67 % 1008,9 hPa 0,0 l/m 2 min 0 min 865 W/m 12,9 km/h (3 Bft) 97,87 %
20.08.2020 13:10 29,4 C 35,6 C 27,8 C 66 % 1008,9 hPa 0,0 l/m 2 min 0 min 873 W/m 6,4 km/h (2 Bft) 97,87 %
20.08.2020 13:12 29,4 C 35,6 C 27,8 C 66 % 1008,9 hPa 0,0 l/m 2 min 0 min 855 W/m 12,9 km/h (3 Bft) 97,83 %
20.08.2020 13:14 29,6 C 35,0 C 27,8 C 65 % 1008,9 hPa 0,0 l/m 2 min 0 min 852 W/m 19,3 km/h (3 Bft) 97,87 %
20.08.2020 13:16 29,6 C 34,4 C 27,8 C 65 % 1008,9 hPa 0,0 l/m 2 min 0 min 881 W/m 16,1 km/h (3 Bft) 95,74 %
20.08.2020 13:18 29,6 C 34,4 C 27,8 C 65 % 1008,9 hPa 0,0 l/m 2 min 0 min 893 W/m 3,2 km/h (1 Bft) 95,74 %
20.08.2020 13:20 29,7 C 35,0 C 27,8 C 65 % 1008,9 hPa 0,0 l/m 2 min 0 min 873 W/m 25,7 km/h (4 Bft) 95,74 %
20.08.2020 13:22 29,7 C 35,6 C 27,8 C 66 % 1008,9 hPa 0,0 l/m 2 min 0 min 874 W/m 6,4 km/h (2 Bft) 95,74 %
20.08.2020 13:24 29,8 C 36,1 C 27,8 C 65 % 1008,9 hPa 0,0 l/m 2 min 0 min 881 W/m 3,2 km/h (1 Bft) 97,83 %
20.08.2020 13:26 29,8 C 35,6 C 27,8 C 65 % 1008,9 hPa 0,0 l/m 2 min 0 min 898 W/m 16,1 km/h (3 Bft) 97,87 %
20.08.2020 13:28 29,9 C 33,9 C 27,8 C 64 % 1009,0 hPa 0,0 l/m 2 min 0 min 864 W/m 22,5 km/h (4 Bft) 97,87 %
20.08.2020 13:30 29,9 C 34,4 C 27,8 C 65 % 1008,9 hPa 0,0 l/m 2 min 0 min 902 W/m 6,4 km/h (2 Bft) 95,74 %
20.08.2020 13:32 29,9 C 35,0 C 27,8 C 65 % 1008,9 hPa 0,0 l/m 2 min 0 min 960 W/m 19,3 km/h (3 Bft) 95,74 %
20.08.2020 13:34 29,9 C 35,0 C 27,8 C 65 % 1009,0 hPa 0,0 l/m 2 min 0 min 941 W/m 16,1 km/h (3 Bft) 97,87 %
20.08.2020 13:36 29,9 C 33,9 C 27,8 C 65 % 1009,0 hPa 0,0 l/m 2 min 0 min 940 W/m 6,4 km/h (2 Bft) 95,65 %
20.08.2020 13:38 29,9 C 32,2 C 27,8 C 65 % 1009,0 hPa 0,0 l/m 2 min 0 min 584 W/m 9,7 km/h (2 Bft) 97,87 %
20.08.2020 13:40 29,9 C 31,7 C 27,8 C 65 % 1009,0 hPa 0,0 l/m 2 min 0 min 442 W/m 12,9 km/h (3 Bft) 97,87 %
20.08.2020 13:42 29,9 C 32,2 C 27,8 C 65 % 1008,9 hPa 0,0 l/m 2 min 0 min 570 W/m 3,2 km/h (1 Bft) 97,87 %
20.08.2020 13:44 29,9 C 33,3 C 28,3 C 66 % 1009,0 hPa 0,0 l/m 2 min 0 min 714 W/m 3,2 km/h (1 Bft) 97,87 %
20.08.2020 13:46 29,9 C 32,8 C 28,3 C 65 % 1008,9 hPa 0,0 l/m 2 min 0 min 714 W/m 6,4 km/h (2 Bft) 97,83 %
20.08.2020 13:48 29,9 C 32,2 C 27,8 C 65 % 1008,9 hPa 0,0 l/m 2 min 0 min 382 W/m 6,4 km/h (2 Bft) 97,87 %
20.08.2020 13:50 29,9 C 32,8 C 28,3 C 66 % 1008,8 hPa 0,0 l/m 2 min 0 min 561 W/m 6,4 km/h (2 Bft) 97,87 %
20.08.2020 13:52 29,9 C 32,8 C 27,8 C 65 % 1008,9 hPa 0,0 l/m 2 min 0 min 594 W/m 22,5 km/h (4 Bft) 95,74 %
20.08.2020 13:54 29,9 C 31,7 C 27,8 C 66 % 1008,8 hPa 0,0 l/m 2 min 0 min 430 W/m 0,0 km/h (0 Bft) 97,87 %
20.08.2020 13:56 29,8 C 31,1 C 27,8 C 65 % 1008,8 hPa 0,0 l/m 2 min 0 min 378 W/m 3,2 km/h (1 Bft) 97,87 %
20.08.2020 13:58 29,8 C 32,8 C 28,3 C 66 % 1008,8 hPa 0,0 l/m 2 min 0 min 526 W/m 0,0 km/h (0 Bft) 97,83 %
20.08.2020 14:00 29,8 C 33,9 C 28,9 C 65 % 1008,7 hPa 0,0 l/m 2 min 0 min 938 W/m 6,4 km/h (2 Bft) 97,87 %
20.08.2020 14:02 29,8 C 33,9 C 28,9 C 65 % 1008,8 hPa 0,0 l/m 2 min 0 min 977 W/m 22,5 km/h (4 Bft) 97,87 %
20.08.2020 14:04 29,8 C 33,3 C 28,9 C 66 % 1008,8 hPa 0,0 l/m 2 min 0 min 947 W/m 16,1 km/h (3 Bft) 97,87 %
20.08.2020 14:06 29,8 C 33,3 C 28,9 C 65 % 1008,9 hPa 0,0 l/m 2 min 0 min 755 W/m 12,9 km/h (3 Bft) 97,87 %
20.08.2020 14:08 29,8 C 32,8 C 29,4 C 66 % 1008,8 hPa 0,0 l/m 2 min 0 min 676 W/m 12,9 km/h (3 Bft) 97,87 %
20.08.2020 14:10 29,8 C 32,8 C 30,0 C 66 % 1008,8 hPa 0,0 l/m 2 min 0 min 698 W/m 3,2 km/h (1 Bft) 100,00 %
20.08.2020 14:12 29,8 C 32,8 C 29,4 C 66 % 1008,8 hPa 0,0 l/m 2 min 0 min 547 W/m 0,0 km/h (0 Bft) 100,00 %
20.08.2020 14:14 29,8 C 31,1 C 28,9 C 65 % 1008,7 hPa 0,0 l/m 2 min 0 min 451 W/m 16,1 km/h (3 Bft) 97,87 %
20.08.2020 14:16 29,8 C 31,7 C 28,3 C 65 % 1008,7 hPa 0,0 l/m 2 min 0 min 421 W/m 3,2 km/h (1 Bft) 100,00 %
20.08.2020 14:18 29,8 C 31,7 C 28,3 C 65 % 1008,8 hPa 0,0 l/m 2 min 0 min 513 W/m 9,7 km/h (2 Bft) 100,00 %
20.08.2020 14:20 29,8 C 32,2 C 28,9 C 65 % 1008,7 hPa 0,0 l/m 2 min 0 min 564 W/m 12,9 km/h (3 Bft) 100,00 %
20.08.2020 14:22 29,9 C 34,4 C 28,9 C 66 % 1008,7 hPa 0,0 l/m 2 min 0 min 839 W/m 3,2 km/h (1 Bft) 100,00 %
20.08.2020 14:24 29,9 C 35,0 C 29,4 C 66 % 1008,6 hPa 0,0 l/m 2 min 0 min 884 W/m 16,1 km/h (3 Bft) 100,00 %
20.08.2020 14:26 30,0 C 34,4 C 28,9 C 65 % 1008,7 hPa 0,0 l/m 2 min 0 min 829 W/m 16,1 km/h (3 Bft) 100,00 %
20.08.2020 14:28 30,1 C 33,3 C 28,9 C 64 % 1008,6 hPa 0,0 l/m 2 min 0 min 511 W/m 3,2 km/h (1 Bft) 95,74 %
20.08.2020 14:30 30,1 C 32,2 C 28,3 C 64 % 1008,6 hPa 0,0 l/m 2 min 0 min 414 W/m 19,3 km/h (3 Bft) 97,87 %
20.08.2020 14:32 30,1 C 31,1 C 28,3 C 64 % 1008,6 hPa 0,0 l/m 0 min 0 min 368 W/m 6,4 km/h (2 Bft) 97,87 %
20.08.2020 14:34 30,1 C 30,6 C 28,3 C 64 % 1008,6 hPa 0,0 l/m 0 min 0 min 352 W/m 16,1 km/h (3 Bft) 97,83 %
20.08.2020 14:36 30,1 C 30,6 C 28,3 C 64 % 1008,7 hPa 0,0 l/m 0 min 0 min 349 W/m 0,0 km/h (0 Bft) 97,87 %
20.08.2020 14:38 30,1 C 31,1 C 28,3 C 65 % 1008,6 hPa 0,0 l/m 0 min 0 min 359 W/m 3,2 km/h (1 Bft) 97,87 %
20.08.2020 14:40 30,1 C 31,1 C 28,3 C 65 % 1008,6 hPa 0,0 l/m 2 min 0 min 416 W/m 19,3 km/h (3 Bft) 97,87 %
20.08.2020 14:42 30,0 C 31,1 C 28,3 C 64 % 1008,6 hPa 0,0 l/m 2 min 0 min 524 W/m 25,7 km/h (4 Bft) 97,87 %
20.08.2020 14:44 29,9 C 30,6 C 28,3 C 64 % 1008,6 hPa 0,0 l/m 2 min 0 min 517 W/m 22,5 km/h (4 Bft) 97,87 %
20.08.2020 14:46 29,9 C 30,6 C 28,3 C 64 % 1008,6 hPa 0,0 l/m 2 min 0 min 499 W/m 22,5 km/h (4 Bft) 97,83 %
20.08.2020 14:48 29,8 C 31,7 C 28,3 C 64 % 1008,5 hPa 0,0 l/m 2 min 0 min 556 W/m 3,2 km/h (1 Bft) 97,87 %
20.08.2020 14:50 29,8 C 32,2 C 28,3 C 65 % 1008,5 hPa 0,0 l/m 2 min 0 min 596 W/m 22,5 km/h (4 Bft) 97,87 %
20.08.2020 14:52 29,8 C 32,2 C 28,3 C 65 % 1008,5 hPa 0,0 l/m 2 min 0 min 547 W/m 19,3 km/h (3 Bft) 97,87 %
20.08.2020 14:54 29,8 C 32,2 C 28,9 C 65 % 1008,5 hPa 0,0 l/m 2 min 0 min 459 W/m 0,0 km/h (0 Bft) 97,87 %
20.08.2020 14:56 29,9 C 32,2 C 28,9 C 64 % 1008,4 hPa 0,0 l/m 2 min 0 min 495 W/m 16,1 km/h (3 Bft) 97,83 %
20.08.2020 14:58 29,9 C 32,2 C 28,3 C 64 % 1008,4 hPa 0,0 l/m 2 min 0 min 462 W/m 12,9 km/h (3 Bft) 97,87 %
20.08.2020 15:00 29,9 C 32,2 C 28,3 C 64 % 1008,4 hPa 0,0 l/m 2 min 0 min 479 W/m 6,4 km/h (2 Bft) 97,87 %
20.08.2020 15:02 29,9 C 31,1 C 28,3 C 65 % 1008,4 hPa 0,0 l/m 2 min 0 min 376 W/m 6,4 km/h (2 Bft) 97,87 %
20.08.2020 15:04 29,9 C 31,1 C 28,3 C 64 % 1008,4 hPa 0,0 l/m 2 min 0 min 433 W/m 9,7 km/h (2 Bft) 98,00 %
20.08.2020 15:06 29,9 C 30,6 C 28,3 C 64 % 1008,4 hPa 0,0 l/m 2 min 0 min 433 W/m 19,3 km/h (3 Bft) 95,74 %
20.08.2020 15:08 29,9 C 31,7 C 28,3 C 65 % 1008,3 hPa 0,0 l/m 2 min 0 min 475 W/m 22,5 km/h (4 Bft) 95,65 %
20.08.2020 15:10 29,9 C 32,2 C 28,3 C 66 % 1008,4 hPa 0,0 l/m 2 min 0 min 533 W/m 6,4 km/h (2 Bft) 95,74 %
20.08.2020 15:12 29,9 C 32,2 C 28,9 C 66 % 1008,4 hPa 0,0 l/m 2 min 0 min 534 W/m 6,4 km/h (2 Bft) 97,87 %
20.08.2020 15:14 29,9 C 31,1 C 28,3 C 64 % 1008,3 hPa 0,0 l/m 2 min 0 min 467 W/m 22,5 km/h (4 Bft) 93,62 %
20.08.2020 15:16 29,9 C 30,6 C 28,3 C 64 % 1008,3 hPa 0,0 l/m 2 min 0 min 389 W/m 29,0 km/h (5 Bft) 95,74 %
20.08.2020 15:18 29,9 C 31,1 C 28,3 C 64 % 1008,2 hPa 0,0 l/m 2 min 0 min 406 W/m 22,5 km/h (4 Bft) 95,74 %
20.08.2020 15:20 29,9 C 31,7 C 28,3 C 64 % 1008,2 hPa 0,0 l/m 2 min 0 min 498 W/m 3,2 km/h (1 Bft) 97,83 %
20.08.2020 15:22 29,9 C 31,7 C 28,3 C 65 % 1008,3 hPa 0,0 l/m 2 min 0 min 502 W/m 0,0 km/h (0 Bft) 97,87 %
20.08.2020 15:24 29,9 C 31,7 C 28,3 C 65 % 1008,3 hPa 0,0 l/m 2 min 0 min 511 W/m 19,3 km/h (3 Bft) 97,87 %
20.08.2020 15:26 29,9 C 31,7 C 28,3 C 64 % 1008,3 hPa 0,0 l/m 2 min 0 min 471 W/m 19,3 km/h (3 Bft) 95,74 %
20.08.2020 15:28 29,9 C 31,7 C 28,3 C 64 % 1008,2 hPa 0,0 l/m 2 min 0 min 457 W/m 6,4 km/h (2 Bft) 95,74 %
20.08.2020 15:30 29,9 C 31,1 C 28,3 C 65 % 1008,2 hPa 0,0 l/m 2 min 0 min 345 W/m 6,4 km/h (2 Bft) 95,65 %
20.08.2020 15:32 29,9 C 31,1 C 28,3 C 64 % 1008,1 hPa 0,0 l/m 2 min 0 min 428 W/m 12,9 km/h (3 Bft) 95,74 %
20.08.2020 15:34 29,9 C 31,1 C 28,3 C 64 % 1008,2 hPa 0,0 l/m 2 min 0 min 402 W/m 3,2 km/h (1 Bft) 97,87 %
20.08.2020 15:36 29,9 C 31,7 C 28,3 C 64 % 1008,1 hPa 0,0 l/m 2 min 0 min 498 W/m 16,1 km/h (3 Bft) 97,87 %
20.08.2020 15:38 29,9 C 31,7 C 28,3 C 65 % 1008,1 hPa 0,0 l/m 2 min 0 min 419 W/m 3,2 km/h (1 Bft) 95,74 %
20.08.2020 15:40 29,9 C 31,1 C 28,3 C 65 % 1008,1 hPa 0,0 l/m 2 min 0 min 387 W/m 19,3 km/h (3 Bft) 95,74 %
20.08.2020 15:42 29,9 C 30,6 C 28,3 C 65 % 1008,1 hPa 0,0 l/m 2 min 0 min 369 W/m 16,1 km/h (3 Bft) 97,83 %
20.08.2020 15:44 29,9 C 30,6 C 27,8 C 65 % 1008,0 hPa 0,0 l/m 0 min 0 min 319 W/m 3,2 km/h (1 Bft) 95,74 %
20.08.2020 15:46 29,9 C 30,6 C 27,8 C 65 % 1008,1 hPa 0,0 l/m 0 min 0 min 286 W/m 19,3 km/h (3 Bft) 97,87 %
20.08.2020 15:48 29,9 C 30,0 C 27,8 C 65 % 1008,0 hPa 0,0 l/m 0 min 0 min 285 W/m 12,9 km/h (3 Bft) 95,74 %
20.08.2020 15:50 29,9 C 30,0 C 27,8 C 65 % 1008,0 hPa 0,0 l/m 0 min 0 min 309 W/m 12,9 km/h (3 Bft) 97,87 %
20.08.2020 15:52 29,9 C 30,6 C 27,8 C 64 % 1008,1 hPa 0,0 l/m 2 min 0 min 373 W/m 12,9 km/h (3 Bft) 97,87 %
20.08.2020 15:54 29,8 C 30,6 C 28,3 C 65 % 1008,0 hPa 0,0 l/m 2 min 0 min 356 W/m 12,9 km/h (3 Bft) 97,83 %
20.08.2020 15:56 29,8 C 30,6 C 27,8 C 65 % 1008,0 hPa 0,0 l/m 0 min 0 min 315 W/m 3,2 km/h (1 Bft) 97,87 %
20.08.2020 15:58 29,8 C 30,0 C 27,8 C 65 % 1008,0 hPa 0,0 l/m 0 min 0 min 282 W/m 3,2 km/h (1 Bft) 97,87 %
20.08.2020 16:00 29,8 C 30,0 C 27,8 C 66 % 1008,0 hPa 0,0 l/m 0 min 0 min 261 W/m 3,2 km/h (1 Bft) 97,87 %
20.08.2020 16:02 29,8 C 29,4 C 27,8 C 65 % 1007,9 hPa 0,0 l/m 0 min 0 min 228 W/m 0,0 km/h (0 Bft) 95,74 %
20.08.2020 16:04 29,7 C 29,4 C 27,2 C 66 % 1008,0 hPa 0,0 l/m 0 min 0 min 206 W/m 3,2 km/h (1 Bft) 95,74 %
20.08.2020 16:06 29,7 C 28,9 C 27,2 C 65 % 1008,0 hPa 0,0 l/m 0 min 0 min 211 W/m 12,9 km/h (3 Bft) 95,65 %
20.08.2020 16:08 29,6 C 28,9 C 27,2 C 66 % 1008,0 hPa 0,0 l/m 0 min 0 min 218 W/m 3,2 km/h (1 Bft) 95,74 %
20.08.2020 16:10 29,6 C 28,9 C 27,2 C 66 % 1008,0 hPa 0,0 l/m 0 min 0 min 212 W/m 3,2 km/h (1 Bft) 93,62 %
20.08.2020 16:12 29,6 C 28,9 C 27,2 C 66 % 1007,9 hPa 0,0 l/m 0 min 0 min 211 W/m 6,4 km/h (2 Bft) 95,74 %
20.08.2020 16:14 29,6 C 28,9 C 27,2 C 66 % 1007,9 hPa 0,0 l/m 0 min 0 min 214 W/m 0,0 km/h (0 Bft) 95,74 %
20.08.2020 16:16 29,5 C 29,4 C 27,2 C 66 % 1007,9 hPa 0,0 l/m 0 min 0 min 221 W/m 0,0 km/h (0 Bft) 95,65 %
20.08.2020 16:18 29,4 C 29,4 C 27,2 C 67 % 1007,9 hPa 0,0 l/m 0 min 0 min 233 W/m 3,2 km/h (1 Bft) 95,74 %
20.08.2020 16:20 29,4 C 29,4 C 27,2 C 67 % 1007,9 hPa 0,0 l/m 0 min 0 min 244 W/m 6,4 km/h (2 Bft) 95,74 %
20.08.2020 16:22 29,4 C 29,4 C 27,2 C 67 % 1007,9 hPa 0,0 l/m 0 min 0 min 254 W/m 3,2 km/h (1 Bft) 95,74 %
20.08.2020 16:24 29,4 C 29,4 C 27,2 C 67 % 1007,9 hPa 0,0 l/m 0 min 0 min 261 W/m 3,2 km/h (1 Bft) 97,87 %
20.08.2020 16:26 29,4 C 30,0 C 27,2 C 67 % 1007,9 hPa 0,0 l/m 0 min 0 min 268 W/m 0,0 km/h (0 Bft) 95,74 %
20.08.2020 16:28 29,3 C 30,0 C 27,8 C 67 % 1007,8 hPa 0,0 l/m 0 min 0 min 271 W/m 6,4 km/h (2 Bft) 91,30 %
20.08.2020 16:30 29,3 C 30,0 C 27,8 C 68 % 1007,8 hPa 0,0 l/m 0 min 0 min 261 W/m 12,9 km/h (3 Bft) 97,87 %
20.08.2020 16:32 29,4 C 30,0 C 27,8 C 68 % 1007,8 hPa 0,0 l/m 0 min 0 min 258 W/m 0,0 km/h (0 Bft) 97,87 %
20.08.2020 16:34 29,4 C 30,0 C 27,8 C 68 % 1007,8 hPa 0,0 l/m 0 min 0 min 262 W/m 9,7 km/h (2 Bft) 97,87 %
20.08.2020 16:36 29,4 C 29,4 C 27,8 C 67 % 1007,7 hPa 0,0 l/m 0 min 0 min 245 W/m 6,4 km/h (2 Bft) 97,78 %
20.08.2020 16:38 29,4 C 29,4 C 27,8 C 68 % 1007,7 hPa 0,2 l/m 0 min 0 min 235 W/m 6,4 km/h (2 Bft) 97,87 %
20.08.2020 16:40 29,4 C 29,4 C 27,2 C 67 % 1007,7 hPa 0,0 l/m 0 min 0 min 271 W/m 3,2 km/h (1 Bft) 97,87 %
20.08.2020 16:42 29,4 C 30,0 C 27,8 C 68 % 1007,6 hPa 0,0 l/m 2 min 0 min 287 W/m 3,2 km/h (1 Bft) 97,83 %
20.08.2020 16:44 29,4 C 30,0 C 27,8 C 68 % 1007,6 hPa 0,0 l/m 2 min 0 min 291 W/m 3,2 km/h (1 Bft) 97,87 %
20.08.2020 16:46 29,4 C 30,0 C 27,8 C 68 % 1007,6 hPa 0,0 l/m 0 min 0 min 280 W/m 0,0 km/h (0 Bft) 100,00 %
20.08.2020 16:48 29,4 C 30,0 C 27,8 C 68 % 1007,6 hPa 0,0 l/m 0 min 0 min 256 W/m 3,2 km/h (1 Bft) 100,00 %
20.08.2020 16:50 29,4 C 30,0 C 27,8 C 67 % 1007,6 hPa 0,0 l/m 0 min 0 min 249 W/m 0,0 km/h (0 Bft) 100,00 %
20.08.2020 16:52 29,4 C 29,4 C 27,8 C 67 % 1007,6 hPa 0,0 l/m 0 min 0 min 218 W/m 0,0 km/h (0 Bft) 97,83 %
20.08.2020 16:54 29,4 C 29,4 C 27,8 C 67 % 1007,6 hPa 0,0 l/m 0 min 0 min 234 W/m 0,0 km/h (0 Bft) 100,00 %
20.08.2020 16:56 29,5 C 30,0 C 27,8 C 68 % 1007,6 hPa 0,0 l/m 0 min 0 min 234 W/m 0,0 km/h (0 Bft) 100,00 %
20.08.2020 16:58 29,5 C 30,0 C 27,8 C 68 % 1007,5 hPa 0,0 l/m 0 min 0 min 236 W/m 0,0 km/h (0 Bft) 100,00 %
20.08.2020 17:00 29,5 C 29,4 C 27,8 C 68 % 1007,6 hPa 0,0 l/m 0 min 0 min 233 W/m 3,2 km/h (1 Bft) 100,00 %
20.08.2020 17:02 29,5 C 29,4 C 27,8 C 67 % 1007,5 hPa 0,0 l/m 0 min 0 min 234 W/m 6,4 km/h (2 Bft) 100,00 %
20.08.2020 17:04 29,5 C 29,4 C 27,8 C 67 % 1007,5 hPa 0,0 l/m 0 min 0 min 229 W/m 0,0 km/h (0 Bft) 100,00 %
20.08.2020 17:06 29,5 C 29,4 C 27,8 C 67 % 1007,5 hPa 0,0 l/m 0 min 0 min 241 W/m 3,2 km/h (1 Bft) 100,00 %
20.08.2020 17:08 29,5 C 29,4 C 27,8 C 67 % 1007,5 hPa 0,0 l/m 0 min 0 min 242 W/m 3,2 km/h (1 Bft) 100,00 %
20.08.2020 17:10 29,5 C 29,4 C 27,8 C 68 % 1007,4 hPa 0,0 l/m 0 min 0 min 239 W/m 0,0 km/h (0 Bft) 100,00 %
20.08.2020 17:12 29,5 C 29,4 C 27,8 C 67 % 1007,3 hPa 0,0 l/m 0 min 0 min 237 W/m 0,0 km/h (0 Bft) 95,74 %
20.08.2020 17:14 29,5 C 29,4 C 27,8 C 67 % 1007,3 hPa 0,0 l/m 0 min 0 min 237 W/m 3,2 km/h (1 Bft) 100,00 %
20.08.2020 17:16 29,5 C 29,4 C 27,8 C 67 % 1007,3 hPa 0,0 l/m 0 min 0 min 233 W/m 0,0 km/h (0 Bft) 100,00 %
20.08.2020 17:18 29,5 C 29,4 C 27,8 C 68 % 1007,3 hPa 0,0 l/m 0 min 0 min 234 W/m 0,0 km/h (0 Bft) 100,00 %
20.08.2020 17:20 29,5 C 29,4 C 27,8 C 67 % 1007,2 hPa 0,0 l/m 0 min 0 min 242 W/m 0,0 km/h (0 Bft) 100,00 %
20.08.2020 17:22 29,5 C 29,4 C 27,8 C 67 % 1007,2 hPa 0,0 l/m 2 min 0 min 248 W/m 6,4 km/h (2 Bft) 100,00 %
20.08.2020 17:24 29,5 C 30,0 C 27,8 C 68 % 1007,2 hPa 0,0 l/m 0 min 0 min 243 W/m 0,0 km/h (0 Bft) 100,00 %
20.08.2020 17:26 29,5 C 30,0 C 27,8 C 68 % 1007,2 hPa 0,0 l/m 2 min 0 min 245 W/m 3,2 km/h (1 Bft) 97,87 %
20.08.2020 17:28 29,6 C 30,0 C 27,8 C 68 % 1007,2 hPa 0,0 l/m 2 min 0 min 263 W/m 3,2 km/h (1 Bft) 97,83 %
20.08.2020 17:30 29,6 C 30,6 C 27,8 C 68 % 1007,2 hPa 0,0 l/m 2 min 0 min 329 W/m 6,4 km/h (2 Bft) 100,00 %
20.08.2020 17:32 29,6 C 30,6 C 27,8 C 68 % 1007,2 hPa 0,0 l/m 2 min 0 min 320 W/m 3,2 km/h (1 Bft) 100,00 %
20.08.2020 17:34 29,6 C 30,6 C 27,8 C 68 % 1007,2 hPa 0,0 l/m 2 min 0 min 294 W/m 6,4 km/h (2 Bft) 100,00 %
20.08.2020 17:36 29,7 C 30,6 C 27,8 C 68 % 1007,2 hPa 0,0 l/m 2 min 0 min 314 W/m 0,0 km/h (0 Bft) 100,00 %
20.08.2020 17:38 29,7 C 30,6 C 27,8 C 68 % 1007,2 hPa 0,0 l/m 2 min 0 min 328 W/m 3,2 km/h (1 Bft) 100,00 %
20.08.2020 17:40 29,7 C 30,0 C 27,8 C 67 % 1007,1 hPa 0,0 l/m 2 min 0 min 251 W/m 12,9 km/h (3 Bft) 97,83 %
20.08.2020 17:42 29,7 C 30,0 C 27,8 C 67 % 1007,2 hPa 0,0 l/m 2 min 0 min 224 W/m 12,9 km/h (3 Bft) 97,87 %
20.08.2020 17:44 29,8 C 30,0 C 27,8 C 67 % 1007,1 hPa 0,0 l/m 2 min 0 min 229 W/m 3,2 km/h (1 Bft) 100,00 %
20.08.2020 17:46 29,8 C 30,0 C 27,8 C 67 % 1007,1 hPa 0,0 l/m 2 min 0 min 264 W/m 0,0 km/h (0 Bft) 97,87 %
20.08.2020 17:48 29,8 C 30,6 C 27,8 C 67 % 1007,1 hPa 0,0 l/m 2 min 0 min 306 W/m 16,1 km/h (3 Bft) 100,00 %
20.08.2020 17:50 29,8 C 30,6 C 27,8 C 67 % 1007,0 hPa 0,0 l/m 2 min 0 min 283 W/m 0,0 km/h (0 Bft) 100,00 %
20.08.2020 17:52 29,8 C 30,0 C 27,8 C 67 % 1006,9 hPa 0,0 l/m 2 min 0 min 230 W/m 3,2 km/h (1 Bft) 100,00 %
20.08.2020 17:54 29,8 C 30,0 C 27,8 C 66 % 1007,0 hPa 0,0 l/m 2 min 0 min 248 W/m 6,4 km/h (2 Bft) 93,62 %
20.08.2020 17:56 29,8 C 30,0 C 27,8 C 66 % 1007,0 hPa 0,0 l/m 2 min 0 min 213 W/m 12,9 km/h (3 Bft) 97,87 %
20.08.2020 17:58 29,8 C 30,6 C 27,8 C 67 % 1007,1 hPa 0,0 l/m 2 min 0 min 278 W/m 0,0 km/h (0 Bft) 97,87 %
20.08.2020 18:00 29,9 C 31,1 C 27,8 C 66 % 1007,1 hPa 0,0 l/m 2 min 0 min 380 W/m 3,2 km/h (1 Bft) 97,87 %
20.08.2020 18:02 29,9 C 31,7 C 27,8 C 67 % 1007,0 hPa 0,0 l/m 2 min 0 min 442 W/m 0,0 km/h (0 Bft) 97,87 %
20.08.2020 18:04 29,9 C 31,7 C 27,8 C 66 % 1007,0 hPa 0,0 l/m 2 min 0 min 389 W/m 12,9 km/h (3 Bft) 97,83 %
20.08.2020 18:08 30,1 C 31,1 C 27,8 C 66 % 1007,0 hPa 0,0 l/m 4 min 0 min 342 W/m 12,9 km/h (3 Bft) 95,74 %
20.08.2020 18:10 30,1 C 30,6 C 27,8 C 66 % 1007,0 hPa 0,0 l/m 2 min 0 min 222 W/m 3,2 km/h (1 Bft) 97,87 %
20.08.2020 18:12 30,2 C 30,6 C 27,8 C 66 % 1007,0 hPa 0,0 l/m 2 min 0 min 258 W/m 12,9 km/h (3 Bft) 97,87 %
20.08.2020 18:14 30,2 C 30,0 C 27,8 C 66 % 1007,0 hPa 0,0 l/m 2 min 0 min 204 W/m 6,4 km/h (2 Bft) 97,83 %
20.08.2020 18:16 30,2 C 30,0 C 27,8 C 66 % 1007,0 hPa 0,0 l/m 2 min 0 min 205 W/m 3,2 km/h (1 Bft) 97,87 %
20.08.2020 18:18 30,2 C 30,0 C 27,8 C 65 % 1007,0 hPa 0,0 l/m 2 min 0 min 183 W/m 0,0 km/h (0 Bft) 97,87 %
20.08.2020 18:20 30,2 C 30,0 C 27,8 C 65 % 1007,0 hPa 0,0 l/m 2 min 0 min 199 W/m 0,0 km/h (0 Bft) 97,87 %
20.08.2020 18:22 30,2 C 30,0 C 27,8 C 65 % 1007,0 hPa 0,0 l/m 2 min 0 min 270 W/m 9,7 km/h (2 Bft) 95,74 %
20.08.2020 18:24 30,2 C 30,0 C 27,8 C 65 % 1007,0 hPa 0,0 l/m 2 min 0 min 192 W/m 0,0 km/h (0 Bft) 97,87 %
20.08.2020 18:26 30,2 C 29,4 C 27,8 C 65 % 1006,9 hPa 0,0 l/m 0 min 0 min 150 W/m 6,4 km/h (2 Bft) 97,83 %
20.08.2020 18:28 30,2 C 29,4 C 27,8 C 65 % 1006,9 hPa 0,0 l/m 0 min 0 min 154 W/m 0,0 km/h (0 Bft) 97,87 %
20.08.2020 18:30 30,2 C 29,4 C 27,8 C 65 % 1006,9 hPa 0,0 l/m 2 min 0 min 183 W/m 6,4 km/h (2 Bft) 97,87 %
20.08.2020 18:32 30,2 C 29,4 C 27,2 C 65 % 1006,9 hPa 0,0 l/m 2 min 0 min 184 W/m 9,7 km/h (2 Bft) 93,62 %
20.08.2020 18:34 30,2 C 29,4 C 27,2 C 65 % 1006,9 hPa 0,0 l/m 2 min 0 min 247 W/m 6,4 km/h (2 Bft) 95,74 %
20.08.2020 18:36 30,1 C 30,0 C 27,8 C 65 % 1006,9 hPa 0,0 l/m 2 min 0 min 216 W/m 12,9 km/h (3 Bft) 93,62 %
20.08.2020 18:38 30,1 C 29,4 C 27,8 C 65 % 1006,9 hPa 0,0 l/m 2 min 0 min 187 W/m 3,2 km/h (1 Bft) 95,83 %
20.08.2020 18:40 30,1 C 29,4 C 27,8 C 65 % 1006,9 hPa 0,0 l/m 0 min 0 min 144 W/m 3,2 km/h (1 Bft) 95,74 %
20.08.2020 18:42 30,1 C 29,4 C 27,8 C 65 % 1006,8 hPa 0,0 l/m 0 min 0 min 141 W/m 3,2 km/h (1 Bft) 91,49 %
20.08.2020 18:44 30,1 C 29,4 C 27,8 C 65 % 1006,9 hPa 0,0 l/m 2 min 0 min 152 W/m 6,4 km/h (2 Bft) 93,62 %
20.08.2020 18:46 30,1 C 29,4 C 27,8 C 65 % 1006,9 hPa 0,0 l/m 2 min 0 min 177 W/m 3,2 km/h (1 Bft) 91,49 %
20.08.2020 18:48 30,0 C 29,4 C 27,2 C 65 % 1006,9 hPa 0,0 l/m 0 min 0 min 132 W/m 0,0 km/h (0 Bft) 93,48 %
20.08.2020 18:50 30,0 C 28,9 C 27,2 C 65 % 1006,9 hPa 0,0 l/m 0 min 0 min 117 W/m 3,2 km/h (1 Bft) 95,74 %
20.08.2020 18:52 29,9 C 28,9 C 27,2 C 65 % 1006,8 hPa 0,0 l/m 0 min 0 min 121 W/m 12,9 km/h (3 Bft) 95,74 %
20.08.2020 18:54 29,9 C 28,9 C 27,2 C 65 % 1006,9 hPa 0,0 l/m 0 min 0 min 123 W/m 3,2 km/h (1 Bft) 95,74 %
20.08.2020 18:56 29,9 C 28,9 C 27,2 C 65 % 1006,8 hPa 0,0 l/m 0 min 0 min 116 W/m 3,2 km/h (1 Bft) 93,62 %
20.08.2020 18:58 29,9 C 28,9 C 27,2 C 65 % 1006,7 hPa 0,0 l/m 0 min 0 min 107 W/m 0,0 km/h (0 Bft) 95,74 %
20.08.2020 19:00 29,8 C 28,9 C 27,2 C 65 % 1006,7 hPa 0,0 l/m 0 min 0 min 107 W/m 0,0 km/h (0 Bft) 95,65 %
20.08.2020 19:02 29,8 C 28,9 C 27,2 C 65 % 1006,7 hPa 0,0 l/m 0 min 0 min 104 W/m 0,0 km/h (0 Bft) 95,74 %
20.08.2020 19:04 29,8 C 28,9 C 27,2 C 65 % 1006,7 hPa 0,0 l/m 0 min 0 min 100 W/m 6,4 km/h (2 Bft) 91,49 %
20.08.2020 19:06 29,7 C 28,9 C 27,2 C 65 % 1006,7 hPa 0,0 l/m 0 min 0 min 100 W/m 3,2 km/h (1 Bft) 95,74 %
20.08.2020 19:08 29,7 C 28,3 C 27,2 C 65 % 1006,8 hPa 0,0 l/m 0 min 0 min 100 W/m 0,0 km/h (0 Bft) 95,74 %
20.08.2020 19:10 29,7 C 28,3 C 27,2 C 65 % 1006,8 hPa 0,0 l/m 0 min 0 min 95 W/m 0,0 km/h (0 Bft) 95,74 %
20.08.2020 19:12 29,7 C 28,3 C 27,2 C 65 % 1006,8 hPa 0,0 l/m 0 min 0 min 87 W/m 0,0 km/h (0 Bft) 95,65 %
20.08.2020 19:14 29,6 C 28,3 C 27,2 C 64 % 1006,7 hPa 0,0 l/m 0 min 0 min 81 W/m 16,1 km/h (3 Bft) 97,87 %
20.08.2020 19:16 29,6 C 28,3 C 27,2 C 64 % 1006,7 hPa 0,0 l/m 0 min 0 min 77 W/m 0,0 km/h (0 Bft) 95,74 %
20.08.2020 19:18 29,6 C 28,3 C 27,2 C 65 % 1006,7 hPa 0,0 l/m 0 min 0 min 76 W/m 3,2 km/h (1 Bft) 97,87 %
20.08.2020 19:20 29,6 C 28,3 C 27,2 C 65 % 1006,7 hPa 0,0 l/m 0 min 0 min 66 W/m 0,0 km/h (0 Bft) 95,74 %
20.08.2020 19:22 29,5 C 28,3 C 27,2 C 65 % 1006,7 hPa 0,0 l/m 0 min 0 min 55 W/m 3,2 km/h (1 Bft) 95,74 %
20.08.2020 19:24 29,4 C 28,3 C 27,2 C 65 % 1006,6 hPa 0,0 l/m 0 min 0 min 53 W/m 12,9 km/h (3 Bft) 95,65 %
20.08.2020 19:26 29,4 C 28,3 C 27,2 C 65 % 1006,7 hPa 0,0 l/m 0 min 0 min 55 W/m 3,2 km/h (1 Bft) 97,87 %
20.08.2020 19:28 29,4 C 28,3 C 27,2 C 65 % 1006,5 hPa 0,0 l/m 0 min 0 min 57 W/m 3,2 km/h (1 Bft) 97,87 %
20.08.2020 19:30 29,4 C 27,8 C 27,2 C 65 % 1006,5 hPa 0,0 l/m 0 min 0 min 58 W/m 0,0 km/h (0 Bft) 97,87 %
20.08.2020 19:32 29,3 C 27,8 C 26,7 C 66 % 1006,5 hPa 0,0 l/m 0 min 0 min 60 W/m 0,0 km/h (0 Bft) 97,87 %
20.08.2020 19:34 29,3 C 27,8 C 26,7 C 66 % 1006,5 hPa 0,0 l/m 0 min 0 min 57 W/m 0,0 km/h (0 Bft) 97,87 %
20.08.2020 19:36 29,3 C 27,8 C 26,7 C 66 % 1006,5 hPa 0,0 l/m 0 min 0 min 51 W/m 0,0 km/h (0 Bft) 97,83 %
20.08.2020 19:38 29,2 C 27,8 C 26,7 C 66 % 1006,6 hPa 0,0 l/m 0 min 0 min 48 W/m 0,0 km/h (0 Bft) 97,87 %
20.08.2020 19:40 29,2 C 27,8 C 26,7 C 66 % 1006,5 hPa 0,0 l/m 0 min 0 min 45 W/m 0,0 km/h (0 Bft) 97,87 %
20.08.2020 19:42 29,2 C 27,8 C 26,1 C 66 % 1006,5 hPa 0,0 l/m 0 min 0 min 37 W/m 0,0 km/h (0 Bft) 97,87 %
20.08.2020 19:44 29,1 C 27,8 C 26,1 C 66 % 1006,5 hPa 0,0 l/m 0 min 0 min 29 W/m 0,0 km/h (0 Bft) 97,87 %
20.08.2020 19:46 29,1 C 27,2 C 26,1 C 67 % 1006,5 hPa 0,0 l/m 0 min 0 min 24 W/m 0,0 km/h (0 Bft) 97,83 %
20.08.2020 19:48 29,1 C 27,2 C 26,1 C 67 % 1006,5 hPa 0,0 l/m 0 min 0 min 19 W/m 0,0 km/h (0 Bft) 100,00 %
20.08.2020 19:50 29,0 C 27,2 C 26,1 C 67 % 1006,5 hPa 0,0 l/m 0 min 0 min 18 W/m 3,2 km/h (1 Bft) 100,00 %
20.08.2020 19:52 28,9 C 27,2 C 26,1 C 67 % 1006,5 hPa 0,0 l/m 0 min 0 min 16 W/m 0,0 km/h (0 Bft) 100,00 %
20.08.2020 19:54 28,9 C 27,2 C 26,1 C 67 % 1006,5 hPa 0,0 l/m 0 min 0 min 12 W/m 12,9 km/h (3 Bft) 100,00 %
20.08.2020 19:56 28,8 C 27,2 C 26,1 C 67 % 1006,5 hPa 0,0 l/m 0 min 0 min 10 W/m 19,3 km/h (3 Bft) 100,00 %
20.08.2020 19:58 28,8 C 27,2 C 26,1 C 67 % 1006,5 hPa 0,0 l/m 0 min 0 min 9 W/m 0,0 km/h (0 Bft) 100,00 %
20.08.2020 20:00 28,8 C 27,2 C 26,1 C 67 % 1006,4 hPa 0,0 l/m 0 min 0 min 9 W/m 6,4 km/h (2 Bft) 100,00 %
20.08.2020 20:02 28,7 C 27,2 C 26,1 C 67 % 1006,3 hPa 0,0 l/m 0 min 0 min 9 W/m 22,5 km/h (4 Bft) 100,00 %
20.08.2020 20:04 28,7 C 27,2 C 26,1 C 67 % 1006,3 hPa 0,0 l/m 0 min 0 min 9 W/m 0,0 km/h (0 Bft) 100,00 %
20.08.2020 20:06 28,7 C 27,2 C 26,1 C 67 % 1006,3 hPa 0,0 l/m 0 min 0 min 9 W/m 3,2 km/h (1 Bft) 100,00 %
20.08.2020 20:08 28,7 C 27,2 C 26,1 C 67 % 1006,4 hPa 0,0 l/m 0 min 0 min 9 W/m 19,3 km/h (3 Bft) 100,00 %
20.08.2020 20:10 28,6 C 27,2 C 26,1 C 67 % 1006,4 hPa 0,0 l/m 0 min 0 min 9 W/m 6,4 km/h (2 Bft) 100,00 %
20.08.2020 20:12 28,6 C 27,2 C 26,1 C 67 % 1006,4 hPa 0,0 l/m 0 min 0 min 8 W/m 22,5 km/h (4 Bft) 100,00 %
20.08.2020 20:14 28,6 C 27,2 C 26,1 C 67 % 1006,4 hPa 0,0 l/m 0 min 0 min 7 W/m 3,2 km/h (1 Bft) 100,00 %
20.08.2020 20:16 28,6 C 27,2 C 26,1 C 67 % 1006,4 hPa 0,0 l/m 0 min 0 min 7 W/m 3,2 km/h (1 Bft) 100,00 %
20.08.2020 20:18 28,6 C 27,2 C 26,1 C 67 % 1006,5 hPa 0,0 l/m 0 min 0 min 5 W/m 3,2 km/h (1 Bft) 100,00 %
20.08.2020 20:20 28,6 C 27,2 C 26,7 C 67 % 1006,5 hPa 0,0 l/m 0 min 0 min 5 W/m 6,4 km/h (2 Bft) 100,00 %
20.08.2020 20:22 28,6 C 27,2 C 26,1 C 67 % 1006,5 hPa 0,0 l/m 0 min 0 min 0 W/m 0,0 km/h (0 Bft) 100,00 %
20.08.2020 20:24 28,5 C 27,2 C 26,1 C 67 % 1006,5 hPa 0,0 l/m 0 min 0 min 0 W/m 19,3 km/h (3 Bft) 100,00 %
20.08.2020 20:26 28,5 C 27,2 C 26,1 C 67 % 1006,4 hPa 0,0 l/m 0 min 0 min 0 W/m 3,2 km/h (1 Bft) 100,00 %
20.08.2020 20:28 28,5 C 27,2 C 26,1 C 67 % 1006,4 hPa 0,0 l/m 0 min 0 min 0 W/m 6,4 km/h (2 Bft) 100,00 %
20.08.2020 20:30 28,5 C 27,2 C 26,7 C 67 % 1006,4 hPa 0,0 l/m 0 min 0 min 0 W/m 19,3 km/h (3 Bft) 100,00 %
20.08.2020 20:32 28,5 C 27,2 C 26,7 C 67 % 1006,4 hPa 0,0 l/m 0 min 0 min 0 W/m 12,9 km/h (3 Bft) 100,00 %
20.08.2020 20:34 28,5 C 27,2 C 26,7 C 66 % 1006,3 hPa 0,0 l/m 0 min 0 min 0 W/m 12,9 km/h (3 Bft) 100,00 %
20.08.2020 20:36 28,5 C 27,2 C 26,7 C 66 % 1006,3 hPa 0,0 l/m 0 min 0 min 0 W/m 19,3 km/h (3 Bft) 100,00 %
20.08.2020 20:38 28,4 C 27,2 C 26,7 C 66 % 1006,3 hPa 0,0 l/m 0 min 0 min 0 W/m 3,2 km/h (1 Bft) 100,00 %
20.08.2020 20:40 28,5 C 27,2 C 26,7 C 67 % 1006,3 hPa 0,0 l/m 0 min 0 min 0 W/m 0,0 km/h (0 Bft) 100,00 %
20.08.2020 20:42 28,4 C 27,2 C 26,7 C 67 % 1006,3 hPa 0,0 l/m 0 min 0 min 0 W/m 16,1 km/h (3 Bft) 100,00 %
20.08.2020 20:44 28,4 C 27,2 C 26,7 C 66 % 1006,3 hPa 0,0 l/m 0 min 0 min 0 W/m 16,1 km/h (3 Bft) 100,00 %
20.08.2020 20:46 28,4 C 27,2 C 26,7 C 66 % 1006,4 hPa 0,0 l/m 0 min 0 min 0 W/m 3,2 km/h (1 Bft) 100,00 %
20.08.2020 20:48 28,4 C 27,2 C 26,7 C 66 % 1006,3 hPa 0,0 l/m 0 min 0 min 0 W/m 19,3 km/h (3 Bft) 100,00 %
20.08.2020 20:50 28,4 C 27,2 C 26,7 C 66 % 1006,4 hPa 0,0 l/m 0 min 0 min 0 W/m 25,7 km/h (4 Bft) 100,00 %
20.08.2020 20:52 28,4 C 27,2 C 26,7 C 66 % 1006,4 hPa 0,0 l/m 0 min 0 min 0 W/m 19,3 km/h (3 Bft) 100,00 %
20.08.2020 20:54 28,4 C 27,2 C 26,7 C 66 % 1006,4 hPa 0,0 l/m 0 min 0 min 0 W/m 3,2 km/h (1 Bft) 100,00 %
20.08.2020 20:56 28,4 C 27,2 C 26,7 C 66 % 1006,4 hPa 0,0 l/m 0 min 0 min 0 W/m 16,1 km/h (3 Bft) 100,00 %
20.08.2020 20:58 28,4 C 27,2 C 26,7 C 66 % 1006,4 hPa 0,0 l/m 0 min 0 min 0 W/m 19,3 km/h (3 Bft) 100,00 %
20.08.2020 21:00 28,4 C 27,2 C 26,7 C 66 % 1006,4 hPa 0,0 l/m 0 min 0 min 0 W/m 19,3 km/h (3 Bft) 97,87 %
20.08.2020 21:02 28,4 C 27,2 C 26,7 C 66 % 1006,4 hPa 0,0 l/m 0 min 0 min 0 W/m 16,1 km/h (3 Bft) 95,74 %
20.08.2020 21:04 28,4 C 27,2 C 26,7 C 66 % 1006,4 hPa 0,0 l/m 0 min 0 min 0 W/m 22,5 km/h (4 Bft) 97,87 %
20.08.2020 21:06 28,4 C 27,2 C 26,7 C 66 % 1006,4 hPa 0,0 l/m 0 min 0 min 0 W/m 6,4 km/h (2 Bft) 93,62 %
20.08.2020 21:08 28,4 C 27,2 C 26,7 C 66 % 1006,4 hPa 0,0 l/m 0 min 0 min 0 W/m 16,1 km/h (3 Bft) 93,48 %
20.08.2020 21:10 28,4 C 27,2 C 26,7 C 66 % 1006,4 hPa 0,0 l/m 0 min 0 min 0 W/m 22,5 km/h (4 Bft) 95,74 %
20.08.2020 21:12 28,4 C 27,2 C 26,7 C 66 % 1006,4 hPa 0,0 l/m 0 min 0 min 0 W/m 22,5 km/h (4 Bft) 95,74 %
20.08.2020 21:14 28,4 C 27,2 C 26,7 C 66 % 1006,4 hPa 0,0 l/m 0 min 0 min 0 W/m 3,2 km/h (1 Bft) 95,74 %
20.08.2020 21:16 28,4 C 27,2 C 26,7 C 66 % 1006,4 hPa 0,0 l/m 0 min 0 min 0 W/m 12,9 km/h (3 Bft) 95,74 %
20.08.2020 21:18 28,4 C 27,2 C 26,7 C 66 % 1006,4 hPa 0,0 l/m 0 min 0 min 0 W/m 22,5 km/h (4 Bft) 95,74 %
20.08.2020 21:20 28,4 C 27,2 C 26,7 C 66 % 1006,4 hPa 0,0 l/m 0 min 0 min 0 W/m 12,9 km/h (3 Bft) 95,65 %
20.08.2020 21:22 28,4 C 27,2 C 26,7 C 66 % 1006,5 hPa 0,0 l/m 0 min 0 min 0 W/m 16,1 km/h (3 Bft) 93,62 %
20.08.2020 21:24 28,4 C 27,2 C 26,7 C 66 % 1006,5 hPa 0,0 l/m 0 min 0 min 0 W/m 16,1 km/h (3 Bft) 95,74 %
20.08.2020 21:26 28,4 C 27,2 C 26,7 C 66 % 1006,4 hPa 0,0 l/m 0 min 0 min 0 W/m 19,3 km/h (3 Bft) 95,74 %
20.08.2020 21:28 28,4 C 27,2 C 26,7 C 66 % 1006,5 hPa 0,0 l/m 0 min 0 min 0 W/m 19,3 km/h (3 Bft) 95,74 %
20.08.2020 21:30 28,4 C 27,2 C 26,7 C 66 % 1006,5 hPa 0,0 l/m 0 min 0 min 0 W/m 29,0 km/h (5 Bft) 95,74 %
20.08.2020 21:32 28,5 C 27,2 C 26,7 C 66 % 1006,5 hPa 0,0 l/m 0 min 2 min 0 W/m 22,5 km/h (4 Bft) 97,83 %
20.08.2020 21:34 28,5 C 27,2 C 26,7 C 66 % 1006,5 hPa 0,0 l/m 0 min 0 min 0 W/m 25,7 km/h (4 Bft) 95,74 %
20.08.2020 21:36 28,5 C 27,2 C 26,7 C 66 % 1006,5 hPa 0,0 l/m 0 min 0 min 0 W/m 38,6 km/h (5 Bft) 97,87 %
20.08.2020 21:38 28,5 C 27,2 C 26,7 C 66 % 1006,6 hPa 0,0 l/m 0 min 0 min 0 W/m 19,3 km/h (3 Bft) 95,74 %
20.08.2020 21:40 28,6 C 27,2 C 26,7 C 66 % 1006,6 hPa 0,0 l/m 0 min 0 min 0 W/m 22,5 km/h (4 Bft) 93,62 %
20.08.2020 21:42 28,6 C 27,2 C 26,7 C 66 % 1006,7 hPa 0,0 l/m 0 min 0 min 0 W/m 16,1 km/h (3 Bft) 97,87 %
20.08.2020 21:44 28,6 C 27,2 C 26,7 C 66 % 1006,8 hPa 0,0 l/m 0 min 0 min 0 W/m 6,4 km/h (2 Bft) 97,83 %
20.08.2020 21:46 28,6 C 27,2 C 26,7 C 66 % 1007,1 hPa 0,0 l/m 0 min 0 min 0 W/m 12,9 km/h (3 Bft) 93,62 %
20.08.2020 21:48 28,6 C 27,2 C 26,7 C 66 % 1007,2 hPa 0,0 l/m 0 min 0 min 0 W/m 3,2 km/h (1 Bft) 95,74 %
20.08.2020 21:50 28,6 C 27,2 C 26,7 C 66 % 1007,3 hPa 0,0 l/m 0 min 0 min 0 W/m 6,4 km/h (2 Bft) 97,87 %
20.08.2020 21:52 28,6 C 27,2 C 26,7 C 66 % 1007,3 hPa 0,0 l/m 0 min 0 min 0 W/m 9,7 km/h (2 Bft) 97,87 %
20.08.2020 21:54 28,6 C 27,2 C 26,7 C 66 % 1007,2 hPa 0,0 l/m 0 min 0 min 0 W/m 3,2 km/h (1 Bft) 93,62 %
20.08.2020 21:56 28,6 C 27,2 C 26,7 C 66 % 1007,2 hPa 0,0 l/m 0 min 0 min 0 W/m 0,0 km/h (0 Bft) 97,83 %
20.08.2020 21:58 28,6 C 27,2 C 26,7 C 66 % 1007,1 hPa 0,0 l/m 0 min 0 min 0 W/m 0,0 km/h (0 Bft) 97,87 %
20.08.2020 22:00 28,6 C 27,2 C 26,7 C 66 % 1007,2 hPa 0,0 l/m 0 min 0 min 0 W/m 0,0 km/h (0 Bft) 97,87 %
20.08.2020 22:02 28,6 C 27,2 C 26,7 C 65 % 1007,1 hPa 0,0 l/m 0 min 0 min 0 W/m 6,4 km/h (2 Bft) 97,87 %
20.08.2020 22:04 28,6 C 27,2 C 26,7 C 65 % 1007,0 hPa 0,0 l/m 0 min 0 min 0 W/m 19,3 km/h (3 Bft) 97,87 %
20.08.2020 22:06 28,6 C 27,2 C 26,7 C 65 % 1006,9 hPa 0,0 l/m 0 min 0 min 0 W/m 16,1 km/h (3 Bft) 95,74 %
20.08.2020 22:08 28,6 C 27,8 C 26,7 C 65 % 1006,8 hPa 0,0 l/m 0 min 0 min 0 W/m 19,3 km/h (3 Bft) 97,83 %
20.08.2020 22:10 28,6 C 27,8 C 26,7 C 65 % 1006,9 hPa 0,0 l/m 0 min 0 min 0 W/m 0,0 km/h (0 Bft) 95,74 %
20.08.2020 22:12 28,6 C 27,2 C 26,7 C 65 % 1006,8 hPa 0,0 l/m 0 min 0 min 0 W/m 0,0 km/h (0 Bft) 97,87 %
20.08.2020 22:14 28,6 C 27,2 C 26,7 C 65 % 1006,8 hPa 0,0 l/m 0 min 0 min 0 W/m 6,4 km/h (2 Bft) 95,74 %
20.08.2020 22:16 28,6 C 27,2 C 26,1 C 65 % 1006,8 hPa 0,0 l/m 0 min 0 min 0 W/m 0,0 km/h (0 Bft) 97,87 %
20.08.2020 22:18 28,6 C 27,2 C 26,1 C 65 % 1006,7 hPa 0,0 l/m 0 min 0 min 0 W/m 3,2 km/h (1 Bft) 95,65 %
20.08.2020 22:20 28,6 C 27,2 C 26,1 C 66 % 1006,8 hPa 0,0 l/m 0 min 0 min 0 W/m 0,0 km/h (0 Bft) 97,87 %
20.08.2020 22:22 28,6 C 27,2 C 26,1 C 65 % 1006,7 hPa 0,0 l/m 0 min 0 min 0 W/m 3,2 km/h (1 Bft) 97,87 %
20.08.2020 22:24 28,6 C 27,2 C 26,1 C 65 % 1006,7 hPa 0,0 l/m 0 min 0 min 0 W/m 0,0 km/h (0 Bft) 97,87 %
20.08.2020 22:26 28,6 C 26,7 C 26,1 C 65 % 1006,7 hPa 0,0 l/m 0 min 0 min 0 W/m 0,0 km/h (0 Bft) 94,29 %
20.08.2020 22:28 28,6 C 26,7 C 26,1 C 66 % 1006,8 hPa 0,0 l/m 0 min 0 min 0 W/m 0,0 km/h (0 Bft) 98,11 %
20.08.2020 22:30 28,6 C 26,7 C 26,1 C 66 % 1006,8 hPa 0,0 l/m 0 min 0 min 0 W/m 0,0 km/h (0 Bft) 97,87 %
20.08.2020 22:32 28,5 C 26,7 C 26,1 C 66 % 1006,9 hPa 0,0 l/m 0 min 0 min 0 W/m 0,0 km/h (0 Bft) 97,92 %
20.08.2020 22:34 28,5 C 26,7 C 26,1 C 66 % 1006,8 hPa 0,0 l/m 0 min 0 min 0 W/m 0,0 km/h (0 Bft) 97,87 %
20.08.2020 22:36 28,4 C 26,7 C 26,1 C 66 % 1006,8 hPa 0,0 l/m 0 min 0 min 0 W/m 0,0 km/h (0 Bft) 97,87 %
20.08.2020 22:38 28,4 C 26,7 C 26,1 C 66 % 1006,8 hPa 0,0 l/m 0 min 0 min 0 W/m 3,2 km/h (1 Bft) 97,87 %
20.08.2020 22:40 28,4 C 26,7 C 25,6 C 66 % 1006,7 hPa 0,0 l/m 0 min 0 min 0 W/m 0,0 km/h (0 Bft) 96,08 %
20.08.2020 22:42 28,3 C 26,7 C 25,6 C 66 % 1006,7 hPa 0,0 l/m 0 min 0 min 0 W/m 0,0 km/h (0 Bft) 97,83 %
20.08.2020 22:44 28,3 C 26,7 C 25,6 C 66 % 1006,7 hPa 0,0 l/m 0 min 0 min 0 W/m 0,0 km/h (0 Bft) 97,87 %
20.08.2020 22:46 28,3 C 26,7 C 25,6 C 66 % 1006,8 hPa 0,0 l/m 0 min 0 min 0 W/m 3,2 km/h (1 Bft) 97,87 %
20.08.2020 22:48 28,2 C 26,7 C 25,6 C 66 % 1006,8 hPa 0,0 l/m 0 min 0 min 0 W/m 0,0 km/h (0 Bft) 97,87 %
20.08.2020 22:50 28,2 C 26,7 C 25,6 C 66 % 1006,7 hPa 0,0 l/m 0 min 0 min 0 W/m 0,0 km/h (0 Bft) 97,87 %
20.08.2020 22:52 28,2 C 26,7 C 25,6 C 66 % 1006,7 hPa 0,0 l/m 0 min 0 min 0 W/m 0,0 km/h (0 Bft) 97,87 %
20.08.2020 22:54 28,1 C 26,7 C 25,6 C 67 % 1006,7 hPa 0,0 l/m 0 min 0 min 0 W/m 0,0 km/h (0 Bft) 97,83 %
20.08.2020 22:56 28,1 C 26,7 C 25,6 C 67 % 1006,8 hPa 0,0 l/m 0 min 0 min 0 W/m 0,0 km/h (0 Bft) 97,87 %
20.08.2020 22:58 28,1 C 26,7 C 25,6 C 67 % 1006,9 hPa 0,0 l/m 0 min 0 min 0 W/m 0,0 km/h (0 Bft) 97,87 %
20.08.2020 23:00 28,1 C 26,7 C 25,6 C 67 % 1006,9 hPa 0,0 l/m 0 min 0 min 0 W/m 0,0 km/h (0 Bft) 95,74 %
20.08.2020 23:02 28,1 C 26,7 C 25,6 C 67 % 1007,0 hPa 0,0 l/m 0 min 0 min 0 W/m 0,0 km/h (0 Bft) 97,87 %
20.08.2020 23:04 28,0 C 25,0 C 25,6 C 67 % 1007,0 hPa 0,0 l/m 0 min 2 min 0 W/m 3,2 km/h (1 Bft) 100,00 %
20.08.2020 23:06 28,0 C 23,9 C 25,0 C 68 % 1007,0 hPa 0,0 l/m 0 min 2 min 0 W/m 0,0 km/h (0 Bft) 100,00 %
20.08.2020 23:08 28,0 C 23,9 C 24,4 C 69 % 1007,0 hPa 0,0 l/m 0 min 2 min 0 W/m 0,0 km/h (0 Bft) 100,00 %
20.08.2020 23:10 27,9 C 23,9 C 23,9 C 69 % 1006,9 hPa 0,0 l/m 0 min 2 min 0 W/m 0,0 km/h (0 Bft) 100,00 %
20.08.2020 23:12 27,9 C 23,9 C 23,9 C 70 % 1006,8 hPa 0,0 l/m 0 min 0 min 0 W/m 0,0 km/h (0 Bft) 100,00 %
20.08.2020 23:14 27,9 C 24,4 C 23,9 C 70 % 1006,8 hPa 0,0 l/m 0 min 0 min 0 W/m 0,0 km/h (0 Bft) 100,00 %
20.08.2020 23:16 27,9 C 24,4 C 23,9 C 70 % 1006,7 hPa 0,0 l/m 0 min 0 min 0 W/m 0,0 km/h (0 Bft) 100,00 %
20.08.2020 23:18 27,8 C 24,4 C 23,9 C 70 % 1006,7 hPa 0,0 l/m 0 min 0 min 0 W/m 0,0 km/h (0 Bft) 100,00 %
20.08.2020 23:20 27,8 C 25,0 C 23,9 C 70 % 1006,8 hPa 0,0 l/m 0 min 0 min 0 W/m 0,0 km/h (0 Bft) 100,00 %
20.08.2020 23:22 27,8 C 25,0 C 23,9 C 70 % 1006,8 hPa 0,0 l/m 0 min 0 min 0 W/m 0,0 km/h (0 Bft) 100,00 %
20.08.2020 23:24 27,7 C 25,0 C 23,9 C 70 % 1006,8 hPa 0,0 l/m 0 min 0 min 0 W/m 0,0 km/h (0 Bft) 100,00 %
20.08.2020 23:26 27,7 C 25,0 C 23,9 C 70 % 1006,7 hPa 0,0 l/m 0 min 0 min 0 W/m 0,0 km/h (0 Bft) 100,00 %
20.08.2020 23:28 27,6 C 25,6 C 23,9 C 70 % 1006,7 hPa 0,0 l/m 0 min 0 min 0 W/m 0,0 km/h (0 Bft) 97,83 %
20.08.2020 23:30 27,6 C 25,6 C 23,9 C 70 % 1006,7 hPa 0,0 l/m 0 min 0 min 0 W/m 0,0 km/h (0 Bft) 100,00 %
20.08.2020 23:32 27,5 C 25,6 C 23,9 C 70 % 1006,6 hPa 0,0 l/m 0 min 0 min 0 W/m 0,0 km/h (0 Bft) 95,92 %
20.08.2020 23:34 27,5 C 25,6 C 23,9 C 70 % 1006,6 hPa 0,0 l/m 0 min 0 min 0 W/m 0,0 km/h (0 Bft) 97,87 %
20.08.2020 23:36 27,4 C 25,6 C 24,4 C 70 % 1006,6 hPa 0,0 l/m 0 min 0 min 0 W/m 0,0 km/h (0 Bft) 97,87 %
20.08.2020 23:38 27,4 C 25,6 C 24,4 C 69 % 1006,6 hPa 0,0 l/m 0 min 0 min 0 W/m 0,0 km/h (0 Bft) 97,87 %
20.08.2020 23:40 27,3 C 25,6 C 24,4 C 69 % 1006,6 hPa 0,0 l/m 0 min 0 min 0 W/m 0,0 km/h (0 Bft) 95,65 %
20.08.2020 23:42 27,3 C 25,6 C 24,4 C 70 % 1006,6 hPa 0,0 l/m 0 min 0 min 0 W/m 0,0 km/h (0 Bft) 97,87 %
20.08.2020 23:44 27,2 C 25,6 C 24,4 C 70 % 1006,6 hPa 0,0 l/m 0 min 0 min 0 W/m 3,2 km/h (1 Bft) 97,87 %
20.08.2020 23:46 27,2 C 25,6 C 24,4 C 70 % 1006,5 hPa 0,0 l/m 0 min 0 min 0 W/m 3,2 km/h (1 Bft) 97,87 %
20.08.2020 23:48 27,1 C 25,6 C 24,4 C 70 % 1006,5 hPa 0,0 l/m 0 min 0 min 0 W/m 3,2 km/h (1 Bft) 97,87 %
20.08.2020 23:50 27,1 C 25,6 C 24,4 C 70 % 1006,5 hPa 0,0 l/m 0 min 0 min 0 W/m 0,0 km/h (0 Bft) 97,87 %
20.08.2020 23:52 27,1 C 25,6 C 24,4 C 70 % 1006,5 hPa 0,0 l/m 0 min 0 min 0 W/m 0,0 km/h (0 Bft) 97,83 %
20.08.2020 23:54 27,1 C 25,6 C 24,4 C 70 % 1006,6 hPa 0,0 l/m 0 min 0 min 0 W/m 6,4 km/h (2 Bft) 97,87 %
20.08.2020 23:56 27,0 C 25,6 C 25,0 C 70 % 1006,5 hPa 0,0 l/m 0 min 0 min 0 W/m 0,0 km/h (0 Bft) 97,87 %
20.08.2020 23:58 27,0 C 25,6 C 25,0 C 70 % 1006,5 hPa 0,0 l/m 0 min 0 min 0 W/m 0,0 km/h (0 Bft) 97,87 %
_ Min-Zeit 07:08 04:34 04:36 13:28 00:18 - - - - 03:38 16:28
Minimum _ 20,5 C 18,3 C 18,3 C 64 % 1005,9 hPa - - - - 0,0 km/h (0 Bft) 91,30 %
_ Max-Zeit 18:12 13:24 10:10 06:50 10:54 16:38 12:08 00:00 12:44 21:36 00:00
Maximum _ 30,2 C 36,1 C 33,3 C 93 % 1009,1 hPa 0,2 l/m 4 min 2 min 1052 W/m 38,6 km/h
O-SO (5 Bft)
100,00 %
Durchschnitt _ 25,7 C 25,8 C 24,2 C 75 % 1007,3 hPa #0,2 l/m #6:40 h #44 min. 321 W/m 6,8 km/h (2 Bft) 97,49 %
© 2020 W. Hausmann